EW5603 Weather Reports


Display with metric or nautical units.
time (UTC)temp
F
wind
direction
speed
MPH
gust
MPH
rain 1hr
in
rain 24hr
in
rain mn
in
humidity
%
barometer
mb
20210804161819 72 113 2.0 4.0 0.00 0.00 0.00 72 1029.0
20210804161720 72 113 1.0 2.0 0.00 0.00 0.00 74 1029.0
20210804161620 72 113 1.0 2.0 0.00 0.00 0.00 72 1029.0
20210804161520 72 113 3.0 4.0 0.00 0.00 0.00 72 1029.1
20210804161420 72 0.0 1.0 0.00 0.00 0.00 72 1029.0
20210804161320 72 23 1.0 2.0 0.00 0.00 0.00 72 1029.1
20210804161219 72 23 2.0 3.0 0.00 0.00 0.00 72 1029.1
20210804161119 72 23 1.0 2.0 0.00 0.00 0.00 72 1029.1
20210804161020 72 23 3.0 5.0 0.00 0.00 0.00 72 1029.1
20210804160920 72 68 1.0 3.0 0.00 0.00 0.00 73 1029.1
20210804160819 72 68 1.0 2.0 0.00 0.00 0.00 72 1029.1
20210804160720 72 68 2.0 3.0 0.00 0.00 0.00 71 1029.1
20210804160619 72 68 2.0 4.0 0.00 0.00 0.00 73 1029.1
20210804160519 72 45 1.0 2.0 0.00 0.00 0.00 73 1029.1
20210804160419 72 45 1.0 2.0 0.00 0.00 0.00 74 1029.1
20210804160319 72 45 1.0 2.0 0.00 0.00 0.00 73 1029.1
20210804160220 72 45 2.0 4.0 0.00 0.00 0.00 73 1029.1
20210804160119 72 68 2.0 3.0 0.00 0.00 0.00 74 1029.1
20210804160019 72 68 2.0 2.0 0.00 0.00 0.00 75 1029.1
20210804155919 72 23 1.0 2.0 0.00 0.00 0.00 75 1029.1
20210804155819 72 23 1.0 2.0 0.00 0.00 0.00 73 1029.1
20210804155719 72 23 2.0 4.0 0.00 0.00 0.00 74 1029.2
20210804155619 72 45 1.0 3.0 0.00 0.00 0.00 75 1029.2
20210804155519 72 45 1.0 2.0 0.00 0.00 0.00 75 1029.2
20210804155420 72 45 1.0 2.0 0.00 0.00 0.00 74 1029.2
20210804155320 72 45 1.0 2.0 0.00 0.00 0.00 75 1029.2
20210804155219 72 45 1.0 2.0 0.00 0.00 0.00 75 1029.2
20210804155119 72 45 1.0 2.0 0.00 0.00 0.00 75 1029.2
20210804155020 72 45 1.0 2.0 0.00 0.00 0.00 74 1029.2
20210804154919 72 45 1.0 2.0 0.00 0.00 0.00 74 1029.2
20210804154819 72 45 1.0 1.0 0.00 0.00 0.00 73 1029.2
20210804154719 72 45 1.0 2.0 0.00 0.00 0.00 75 1029.2
20210804154619 72 68 1.0 3.0 0.00 0.00 0.00 74 1029.2
20210804154519 72 68 2.0 2.0 0.00 0.00 0.00 74 1029.2
20210804154420 72 90 2.0 4.0 0.00 0.00 0.00 74 1029.2
20210804154319 72 68 4.0 4.0 0.00 0.00 0.00 74 1029.2
20210804154219 72 0 2.0 2.0 0.00 0.00 0.00 76 1029.2
20210804154119 72 338 2.0 3.0 0.00 0.00 0.00 75 1029.2
20210804154019 72 68 1.0 2.0 0.00 0.00 0.00 74 1029.2
20210804153919 72 0 1.0 2.0 0.00 0.00 0.00 74 1029.1
20210804153819 72 0 2.0 3.0 0.00 0.00 0.00 74 1029.1
20210804153720 72 0 2.0 4.0 0.00 0.00 0.00 75 1029.1
20210804153619 72 68 1.0 2.0 0.00 0.00 0.00 74 1029.1
20210804153519 72 68 2.0 4.0 0.00 0.00 0.00 74 1029.1
20210804153419 72 45 1.0 2.0 0.00 0.00 0.00 75 1029.1
20210804153319 72 45 1.0 2.0 0.00 0.00 0.00 75 1029.1
20210804153220 72 68 1.0 3.0 0.00 0.00 0.00 75 1029.1
20210804153119 72 68 2.0 3.0 0.00 0.00 0.00 75 1029.1
20210804153019 72 0 1.0 3.0 0.00 0.00 0.00 75 1029.1
20210804152919 72 338 3.0 3.0 0.00 0.00 0.00 74 1029.1
20210804152819 72 23 3.0 3.0 0.00 0.00 0.00 74 1029.1
20210804152719 72 0 2.0 3.0 0.00 0.00 0.00 74 1029.1
20210804152620 72 0 1.0 2.0 0.00 0.00 0.00 75 1029.1
20210804152519 72 0 1.0 2.0 0.00 0.00 0.00 74 1029.2
20210804152420 72 0 2.0 3.0 0.00 0.00 0.00 73 1029.2
20210804152319 72 23 2.0 4.0 0.00 0.00 0.00 73 1029.2
20210804152219 72 23 3.0 3.0 0.00 0.00 0.00 74 1029.2
20210804152119 72 338 3.0 3.0 0.00 0.00 0.00 73 1029.2
20210804152019 72 23 2.0 3.0 0.00 0.00 0.00 73 1029.3
20210804151920 72 45 1.0 2.0 0.00 0.00 0.00 74 1029.3
20210804151819 72 0 2.0 3.0 0.00 0.00 0.00 75 1029.3
20210804151719 72 0 1.0 2.0 0.00 0.00 0.00 73 1029.3
20210804151620 72 0 2.0 4.0 0.00 0.00 0.00 73 1029.3
20210804151520 72 23 3.0 4.0 0.00 0.00 0.00 73 1029.3
20210804151419 72 45 3.0 4.0 0.00 0.00 0.00 74 1029.3
20210804151319 71 68 1.0 3.0 0.00 0.00 0.00 75 1029.3
20210804151219 71 23 1.0 1.0 0.00 0.00 0.00 74 1029.3
20210804151121 71 23 1.0 3.0 0.00 0.00 0.00 75 1029.3
20210804151020 71 90 1.0 2.0 0.00 0.00 0.00 76 1029.3
20210804150919 71 90 1.0 2.0 0.00 0.00 0.00 76 1029.4
20210804150819 71 90 2.0 2.0 0.00 0.00 0.00 75 1029.3
20210804150719 71 90 2.0 4.0 0.00 0.00 0.00 75 1029.4
20210804150620 71 90 1.0 3.0 0.00 0.00 0.00 75 1029.3
20210804150519 71 90 2.0 2.0 0.00 0.00 0.00 74 1029.3
20210804150419 71 90 2.0 3.0 0.00 0.00 0.00 76 1029.3
20210804150319 71 45 1.0 2.0 0.00 0.00 0.00 76 1029.3
20210804150219 71 45 1.0 3.0 0.00 0.00 0.00 75 1029.3
20210804150119 71 113 2.0 3.0 0.00 0.00 0.00 76 1029.3
20210804150019 71 90 2.0 2.0 0.00 0.00 0.00 76 1029.2
20210804145919 71 90 1.0 2.0 0.00 0.00 0.00 76 1029.2
20210804145820 71 90 1.0 2.0 0.00 0.00 0.00 75 1029.2
20210804145720 71 90 1.0 2.0 0.00 0.00 0.00 75 1029.3
20210804145619 71 90 2.0 3.0 0.00 0.00 0.00 76 1029.3
20210804145520 71 23 2.0 3.0 0.00 0.00 0.00 76 1029.3
20210804145419 71 90 2.0 3.0 0.00 0.00 0.00 77 1029.3
20210804145319 71 90 2.0 3.0 0.00 0.00 0.00 78 1029.4
20210804145219 71 315 2.0 3.0 0.00 0.00 0.00 78 1029.4
20210804145119 71 315 2.0 3.0 0.00 0.00 0.00 79 1029.3
20210804145019 71 315 2.0 3.0 0.00 0.00 0.00 78 1029.4
20210804144919 71 315 1.0 2.0 0.00 0.00 0.00 79 1029.4
20210804144819 71 315 2.0 3.0 0.00 0.00 0.00 78 1029.3
20210804144719 71 315 2.0 3.0 0.00 0.00 0.00 78 1029.3
20210804144619 71 315 2.0 3.0 0.00 0.00 0.00 78 1029.3
20210804144519 71 315 2.0 3.0 0.00 0.00 0.00 78 1029.3
20210804144419 71 0 2.0 3.0 0.00 0.00 0.00 77 1029.3
20210804144320 71 0 3.0 3.0 0.00 0.00 0.00 78 1029.3
20210804144219 71 0 1.0 2.0 0.00 0.00 0.00 78 1029.2
20210804144119 71 0 2.0 3.0 0.00 0.00 0.00 77 1029.3
20210804144019 71 0 3.0 3.0 0.00 0.00 0.00 77 1029.3
20210804143919 71 0 2.0 3.0 0.00 0.00 0.00 78 1029.3
20210804143819 71 0 2.0 4.0 0.00 0.00 0.00 77 1029.3
20210804143719 71 23 3.0 3.0 0.00 0.00 0.00 78 1029.2
20210804143619 71 23 2.0 3.0 0.00 0.00 0.00 78 1029.3
20210804143519 71 45 1.0 2.0 0.00 0.00 0.00 78 1029.2
20210804143419 71 45 1.0 2.0 0.00 0.00 0.00 77 1029.2
20210804143320 71 45 2.0 3.0 0.00 0.00 0.00 78 1029.3
20210804143219 71 68 1.0 2.0 0.00 0.00 0.00 78 1029.2
20210804143119 71 0.0 1.0 0.00 0.00 0.00 78 1029.2
20210804143019 71 0.0 0.0 0.00 0.00 0.00 77 1029.2
20210804142919 71 68 1.0 2.0 0.00 0.00 0.00 78 1029.2
20210804142819 71 68 1.0 1.0 0.00 0.00 0.00 77 1029.2
20210804142719 71 68 1.0 1.0 0.00 0.00 0.00 76 1029.2
20210804142619 71 68 1.0 2.0 0.00 0.00 0.00 77 1029.2
20210804142519 70 68 1.0 2.0 0.00 0.00 0.00 76 1029.1
20210804142419 70 68 2.0 2.0 0.00 0.00 0.00 77 1029.2
20210804142319 70 0.0 2.0 0.00 0.00 0.00 78 1029.2
20210804142219 70 0.0 0.0 0.00 0.00 0.00 76 1029.2
20210804142119 70 0.0 0.0 0.00 0.00 0.00 76 1029.1
20210804142019 70 0.0 1.0 0.00 0.00 0.00 75 1029.2
20210804141919 70 68 1.0 2.0 0.00 0.00 0.00 76 1029.1
20210804141819 70 68 1.0 2.0 0.00 0.00 0.00 76 1029.2
20210804141719 70 68 2.0 2.0 0.00 0.00 0.00 76 1029.2
20210804141619 70 68 2.0 3.0 0.00 0.00 0.00 77 1029.2
20210804141519 70 68 1.0 2.0 0.00 0.00 0.00 77 1029.1
20210804141419 70 68 1.0 2.0 0.00 0.00 0.00 78 1029.1
20210804141319 70 0.0 1.0 0.00 0.00 0.00 77 1029.1
20210804141219 70 0.0 1.0 0.00 0.00 0.00 77 1029.1
20210804141119 70 68 1.0 2.0 0.00 0.00 0.00 77 1029.0
20210804141021 70 68 1.0 2.0 0.00 0.00 0.00 78 1029.0
20210804140919 70 68 2.0 2.0 0.00 0.00 0.00 77 1029.1
20210804140819 70 68 2.0 2.0 0.00 0.00 0.00 77 1029.0
20210804140720 70 68 1.0 2.0 0.00 0.00 0.00 77 1029.0
20210804140619 70 68 2.0 3.0 0.00 0.00 0.00 77 1029.0
20210804140519 70 68 2.0 3.0 0.00 0.00 0.00 78 1029.0
20210804140419 70 68 2.0 4.0 0.00 0.00 0.00 78 1029.0
20210804140319 70 338 1.0 2.0 0.00 0.00 0.00 78 1028.9
20210804140219 70 338 1.0 2.0 0.00 0.00 0.00 79 1028.9
20210804140119 70 338 2.0 3.0 0.00 0.00 0.00 80 1028.9
20210804140019 70 338 2.0 3.0 0.00 0.00 0.00 79 1028.9
20210804135919 70 338 1.0 2.0 0.00 0.00 0.00 80 1028.9
20210804135819 70 338 2.0 4.0 0.00 0.00 0.00 80 1028.9
20210804135719 70 315 1.0 4.0 0.00 0.00 0.00 80 1028.8
20210804135619 70 0 1.0 2.0 0.00 0.00 0.00 80 1028.8
20210804135519 70 0 1.0 1.0 0.00 0.00 0.00 80 1028.8
20210804135419 70 0 1.0 2.0 0.00 0.00 0.00 80 1028.9
20210804135319 70 0 1.0 2.0 0.00 0.00 0.00 80 1028.8
20210804135219 70 0 2.0 3.0 0.00 0.00 0.00 80 1028.8
20210804135119 70 0 1.0 2.0 0.00 0.00 0.00 81 1028.8
20210804135019 70 0.0 1.0 0.00 0.00 0.00 81 1028.7
20210804134919 70 0.0 1.0 0.00 0.00 0.00 81 1028.7
20210804134820 70 0 1.0 2.0 0.00 0.00 0.00 81 1028.7
20210804134719 69 0 1.0 2.0 0.00 0.00 0.00 81 1028.7
20210804134619 69 0 2.0 2.0 0.00 0.00 0.00 82 1028.7
20210804134519 69 0 2.0 3.0 0.00 0.00 0.00 83 1028.7
20210804134419 69 0 1.0 1.0 0.00 0.00 0.00 82 1028.7
20210804134319 69 0 1.0 1.0 0.00 0.00 0.00 82 1028.7
20210804134219 69 0 1.0 2.0 0.00 0.00 0.00 82 1028.8
20210804134119 69 0 1.0 2.0 0.00 0.00 0.00 82 1028.7
20210804134019 69 0 2.0 4.0 0.00 0.00 0.00 82 1028.7
20210804133919 69 338 2.0 2.0 0.00 0.00 0.00 82 1028.7
20210804133819 69 338 1.0 3.0 0.00 0.00 0.00 82 1028.7
20210804133719 69 338 1.0 2.0 0.00 0.00 0.00 82 1028.7
20210804133619 69 338 1.0 1.0 0.00 0.00 0.00 82 1028.7
20210804133519 69 0.0 2.0 0.00 0.00 0.00 82 1028.8
20210804133419 69 338 2.0 3.0 0.00 0.00 0.00 82 1028.7
20210804133319 69 0.0 1.0 0.00 0.00 0.00 83 1028.8
20210804133219 69 0.0 1.0 0.00 0.00 0.00 84 1028.7
20210804133119 68 248 1.0 2.0 0.00 0.00 0.00 83 1028.7
20210804133019 68 0 2.0 3.0 0.00 0.00 0.00 83 1028.7
20210804132919 68 0 1.0 2.0 0.00 0.00 0.00 83 1028.7
20210804132819 68 0 2.0 3.0 0.00 0.00 0.00 82 1028.7
20210804132719 68 0 2.0 3.0 0.00 0.00 0.00 82 1028.7
20210804132619 68 0 2.0 3.0 0.00 0.00 0.00 82 1028.7
20210804132519 68 0 2.0 3.0 0.00 0.00 0.00 83 1028.7
20210804132419 68 0 1.0 2.0 0.00 0.00 0.00 82 1028.7
20210804132319 68 0 2.0 3.0 0.00 0.00 0.00 83 1028.7
20210804132219 68 0 1.0 2.0 0.00 0.00 0.00 83 1028.8
20210804132120 68 0 2.0 3.0 0.00 0.00 0.00 82 1028.7
20210804132019 68 0 1.0 3.0 0.00 0.00 0.00 82 1028.8
20210804131919 68 0 2.0 3.0 0.00 0.00 0.00 82 1028.8
20210804131819 68 0 2.0 3.0 0.00 0.00 0.00 82 1028.7
20210804131719 68 0 2.0 3.0 0.00 0.00 0.00 82 1028.7
20210804131619 68 0 1.0 3.0 0.00 0.00 0.00 82 1028.8
20210804131519 68 0 1.0 3.0 0.00 0.00 0.00 83 1028.7
20210804131419 68 0 2.0 3.0 0.00 0.00 0.00 82 1028.7
20210804131319 67 0 2.0 4.0 0.00 0.00 0.00 83 1028.7
20210804131219 67 0 1.0 2.0 0.00 0.00 0.00 83 1028.7
20210804131119 67 0 2.0 3.0 0.00 0.00 0.00 83 1028.7
20210804131019 67 0 2.0 3.0 0.00 0.00 0.00 83 1028.8
20210804130919 67 0 2.0 3.0 0.00 0.00 0.00 83 1028.8
20210804130819 67 0 2.0 3.0 0.00 0.00 0.00 83 1028.8
20210804130719 67 0 2.0 3.0 0.00 0.00 0.00 83 1028.8
20210804130619 67 0 2.0 3.0 0.00 0.00 0.00 83 1028.8
20210804130519 67 0 1.0 2.0 0.00 0.00 0.00 83 1028.8
20210804130419 67 0 2.0 3.0 0.00 0.00 0.00 83 1028.8
20210804130319 67 0 1.0 2.0 0.00 0.00 0.00 84 1028.8
20210804130219 67 0 1.0 2.0 0.00 0.00 0.00 84 1028.8
20210804130119 67 0 1.0 2.0 0.00 0.00 0.00 84 1028.8
20210804130019 67 0 2.0 3.0 0.00 0.00 0.00 84 1028.8
20210804125919 67 0 2.0 3.0 0.00 0.00 0.00 84 1028.9
20210804125819 67 0 2.0 3.0 0.00 0.00 0.00 84 1028.9
20210804125719 67 0 1.0 2.0 0.00 0.00 0.00 84 1028.9
20210804125619 67 0 1.0 2.0 0.00 0.00 0.00 84 1028.9
20210804125519 67 0 1.0 2.0 0.00 0.00 0.00 83 1028.9
20210804125419 67 0 3.0 4.0 0.00 0.00 0.00 83 1029.0
20210804125318 67 23 2.0 3.0 0.00 0.00 0.00 83 1029.0
20210804125219 67 23 1.0 2.0 0.00 0.00 0.00 84 1029.0
20210804125119 67 23 2.0 3.0 0.00 0.00 0.00 84 1029.0
20210804125019 67 23 1.0 3.0 0.00 0.00 0.00 84 1029.0
20210804124919 67 23 1.0 2.0 0.00 0.00 0.00 84 1029.0
20210804124819 67 23 1.0 2.0 0.00 0.00 0.00 84 1029.0
20210804124719 67 23 2.0 3.0 0.00 0.00 0.00 84 1029.0
20210804124619 67 23 2.0 4.0 0.00 0.00 0.00 84 1029.0
20210804124519 67 23 1.0 2.0 0.00 0.00 0.00 83 1029.0
20210804124419 67 23 2.0 3.0 0.00 0.00 0.00 84 1028.9
20210804124319 67 23 2.0 3.0 0.00 0.00 0.00 83 1029.0
20210804124219 67 0 2.0 3.0 0.00 0.00 0.00 83 1029.0
20210804124119 67 0 2.0 3.0 0.00 0.00 0.00 83 1028.9
20210804124019 67 0 2.0 3.0 0.00 0.00 0.00 84 1028.9
20210804123919 67 0 1.0 2.0 0.00 0.00 0.00 84 1028.9
20210804123819 67 0 1.0 2.0 0.00 0.00 0.00 84 1028.9
20210804123719 67 0 2.0 3.0 0.00 0.00 0.00 84 1028.9
20210804123619 67 338 1.0 2.0 0.00 0.00 0.00 84 1028.9
20210804123519 67 338 2.0 2.0 0.00 0.00 0.00 84 1028.9
20210804123419 67 338 1.0 2.0 0.00 0.00 0.00 84 1028.9
20210804123320 67 338 1.0 2.0 0.00 0.00 0.00 84 1028.9
20210804123219 67 338 1.0 3.0 0.00 0.00 0.00 84 1029.0
20210804123121 67 338 3.0 4.0 0.00 0.00 0.00 84 1029.0
20210804123019 67 338 2.0 4.0 0.00 0.00 0.00 84 1029.0
20210804122921 67 338 1.0 2.0 0.00 0.00 0.00 85 1029.0
20210804122819 67 338 1.0 2.0 0.00 0.00 0.00 85 1029.0
20210804122724 67 338 1.0 2.0 0.00 0.00 0.00 85 1029.0
20210804122619 67 338 1.0 2.0 0.00 0.00 0.00 85 1029.1
20210804122519 67 338 1.0 2.0 0.00 0.00 0.00 85 1029.1
20210804122419 67 338 1.0 2.0 0.00 0.00 0.00 85 1029.1
20210804122319 67 338 1.0 2.0 0.00 0.00 0.00 85 1029.1
20210804122219 67 0.0 2.0 0.00 0.00 0.00 85 1029.1
20210804122118 67 338 2.0 3.0 0.00 0.00 0.00 85 1029.1
20210804122019 67 338 2.0 3.0 0.00 0.00 0.00 86 1029.1
20210804121920 67 338 1.0 2.0 0.00 0.00 0.00 86 1029.0
20210804121819 66 338 1.0 2.0 0.00 0.00 0.00 87 1029.1
20210804121719 66 338 1.0 2.0 0.00 0.00 0.00 87 1029.0
20210804121619 66 338 1.0 2.0 0.00 0.00 0.00 87 1029.0
20210804121519 66 0.0 0.0 0.00 0.00 0.00 87 1029.1
20210804121419 66 0.0 2.0 0.00 0.00 0.00 87 1029.1
20210804121319 66 338 2.0 3.0 0.00 0.00 0.00 87 1029.0
20210804121219 66 338 2.0 3.0 0.00 0.00 0.00 86 1029.0
20210804121119 66 338 2.0 3.0 0.00 0.00 0.00 86 1029.1
20210804121019 66 338 2.0 3.0 0.00 0.00 0.00 86 1029.0
20210804120920 66 338 3.0 4.0 0.00 0.00 0.00 86 1029.0
20210804120821 66 315 3.0 4.0 0.00 0.00 0.00 87 1028.9
20210804120719 65 338 2.0 3.0 0.00 0.00 0.00 87 1028.9
20210804120619 65 338 2.0 3.0 0.00 0.00 0.00 88 1028.9
20210804120519 65 338 2.0 2.0 0.00 0.00 0.00 89 1028.9
20210804120419 65 0 1.0 2.0 0.00 0.00 0.00 89 1028.8
20210804120320 65 0 2.0 3.0 0.00 0.00 0.00 90 1028.8
20210804120220 65 0 1.0 2.0 0.00 0.00 0.00 89 1028.8
20210804120119 65 0 1.0 2.0 0.00 0.00 0.00 89 1028.8
20210804120019 65 0 2.0 3.0 0.00 0.00 0.00 89 1028.8
20210804115919 65 0 2.0 3.0 0.00 0.00 0.00 89 1028.8
20210804115819 64 0 2.0 3.0 0.00 0.00 0.00 90 1028.9
20210804115719 64 0 1.0 2.0 0.00 0.00 0.00 90 1028.9
20210804115619 64 0 2.0 3.0 0.00 0.00 0.00 90 1028.9
20210804115519 64 0 1.0 1.0 0.00 0.00 0.00 90 1028.9
20210804115418 64 0 1.0 2.0 0.00 0.00 0.00 90 1028.8
20210804115319 64 0 1.0 2.0 0.00 0.00 0.00 90 1028.8
20210804115219 64 0 1.0 2.0 0.00 0.00 0.00 91 1028.8
20210804115120 64 0 1.0 3.0 0.00 0.00 0.00 91 1028.8
20210804115021 64 0 2.0 3.0 0.00 0.00 0.00 91 1028.8
20210804114920 64 338 1.0 2.0 0.00 0.00 0.00 91 1028.8
20210804114819 63 338 2.0 3.0 0.00 0.00 0.00 92 1028.8
20210804114719 63 338 1.0 2.0 0.00 0.00 0.00 92 1028.8
20210804114619 63 338 2.0 3.0 0.00 0.00 0.00 92 1028.8
20210804114519 63 338 2.0 3.0 0.00 0.00 0.00 92 1028.8
20210804114419 63 338 3.0 3.0 0.00 0.00 0.00 92 1028.8
20210804114319 63 338 3.0 4.0 0.00 0.00 0.00 92 1028.7
20210804114220 63 338 3.0 3.0 0.00 0.00 0.00 92 1028.7
20210804114119 63 0 2.0 3.0 0.00 0.00 0.00 93 1028.7
20210804114020 63 0 3.0 3.0 0.00 0.00 0.00 93 1028.7
20210804113920 63 0 2.0 4.0 0.00 0.00 0.00 93 1028.7
20210804113820 63 0 3.0 4.0 0.00 0.00 0.00 93 1028.6
20210804113719 62 0.0 1.0 0.00 0.00 0.00 93 1028.6
20210804113619 62 0 1.0 2.0 0.00 0.00 0.00 94 1028.6
20210804113519 62 0 2.0 2.0 0.00 0.00 0.00 94 1028.6
20210804113419 62 0 2.0 3.0 0.00 0.00 0.00 94 1028.5
20210804113319 62 0 2.0 2.0 0.00 0.00 0.00 94 1028.4
20210804113218 62 0 2.0 3.0 0.00 0.00 0.00 94 1028.4
20210804113119 62 0 2.0 3.0 0.00 0.00 0.00 94 1028.4
20210804113021 62 0 1.0 2.0 0.00 0.00 0.00 94 1028.4
20210804112920 62 0 2.0 3.0 0.00 0.00 0.00 95 1028.4
20210804112821 62 225 1.0 3.0 0.00 0.00 0.00 95 1028.4
20210804112720 62 338 2.0 3.0 0.00 0.00 0.00 95 1028.4
20210804112620 61 338 2.0 3.0 0.00 0.00 0.00 95 1028.3
20210804112519 61 338 2.0 3.0 0.00 0.00 0.00 95 1028.4
20210804112419 61 338 3.0 3.0 0.00 0.00 0.00 95 1028.3
20210804112319 61 338 2.0 2.0 0.00 0.00 0.00 95 1028.3
20210804112219 61 338 2.0 3.0 0.00 0.00 0.00 95 1028.4
20210804112119 61 338 2.0 3.0 0.00 0.00 0.00 95 1028.3
20210804112021 61 338 3.0 4.0 0.00 0.00 0.00 95 1028.4
20210804111921 61 338 2.0 4.0 0.00 0.00 0.00 95 1028.3
20210804111820 61 0 2.0 3.0 0.00 0.00 0.00 95 1028.3
20210804111720 61 0 1.0 2.0 0.00 0.00 0.00 95 1028.3
20210804111621 61 0 1.0 2.0 0.00 0.00 0.00 95 1028.3
20210804111520 61 0 1.0 2.0 0.00 0.00 0.00 95 1028.3
20210804111419 61 0 1.0 2.0 0.00 0.00 0.00 95 1028.3
20210804111319 61 0 1.0 1.0 0.00 0.00 0.00 95 1028.2
20210804111219 61 0 1.0 2.0 0.00 0.00 0.00 95 1028.2
20210804111119 61 0 1.0 1.0 0.00 0.00 0.00 95 1028.2
20210804111019 61 0 1.0 2.0 0.00 0.00 0.00 95 1028.2
20210804110919 61 0.0 1.0 0.00 0.00 0.00 95 1028.2
20210804110821 61 0.0 0.0 0.00 0.00 0.00 95 1028.2
20210804110721 61 0.0 0.0 0.00 0.00 0.00 95 1028.2
20210804110620 61 0.0 1.0 0.00 0.00 0.00 95 1028.1
20210804110520 61 0.0 0.0 0.00 0.00 0.00 95 1028.1
20210804110420 61 0.0 0.0 0.00 0.00 0.00 95 1028.2
20210804110319 61 0.0 0.0 0.00 0.00 0.00 95 1028.2
20210804110219 60 0.0 0.0 0.00 0.00 0.00 95 1028.2
20210804110119 60 0.0 1.0 0.00 0.00 0.00 95 1028.2
20210804110019 60 0.0 1.0 0.00 0.00 0.00 95 1028.2
20210804105919 60 0.0 1.0 0.00 0.00 0.00 95 1028.2
20210804105820 60 0 1.0 2.0 0.00 0.00 0.00 95 1028.2
20210804105720 60 0 1.0 1.0 0.00 0.00 0.00 95 1028.2
20210804105620 60 0 1.0 1.0 0.00 0.00 0.00 95 1028.2
20210804105520 60 0 1.0 2.0 0.00 0.00 0.00 95 1028.2
20210804105421 60 0 2.0 3.0 0.00 0.00 0.00 95 1028.2
20210804105320 60 0 2.0 2.0 0.00 0.00 0.00 95 1028.2
20210804105221 60 0 1.0 2.0 0.00 0.00 0.00 95 1028.2
20210804105119 60 0 1.0 1.0 0.00 0.00 0.00 95 1028.2
20210804105019 60 0 1.0 1.0 0.00 0.00 0.00 95 1028.2
20210804104918 60 0 1.0 1.0 0.00 0.00 0.00 95 1028.2
20210804104818 60 0 1.0 1.0 0.00 0.00 0.00 95 1028.2
20210804104719 60 0.0 0.0 0.00 0.00 0.00 95 1028.2
20210804104620 60 0 1.0 1.0 0.00 0.00 0.00 95 1028.2
20210804104521 60 0.0 1.0 0.00 0.00 0.00 95 1028.2
20210804104420 60 0.0 1.0 0.00 0.00 0.00 95 1028.2
20210804104321 60 0.0 0.0 0.00 0.00 0.00 95 1028.2
20210804104220 60 0.0 0.0 0.00 0.00 0.00 95 1028.2
20210804104121 60 0 1.0 1.0 0.00 0.00 0.00 95 1028.2
20210804104021 60 0.0 1.0 0.00 0.00 0.00 95 1028.2
20210804103919 60 0 1.0 1.0 0.00 0.00 0.00 95 1028.2
20210804103819 60 0 1.0 2.0 0.00 0.00 0.00 95 1028.2
20210804103718 60 0.0 1.0 0.00 0.00 0.00 95 1028.1
20210804103621 60 0 1.0 1.0 0.00 0.00 0.00 95 1028.2
20210804103520 60 0 1.0 1.0 0.00 0.00 0.00 95 1028.2
20210804103420 60 0 1.0 1.0 0.00 0.00 0.00 95 1028.1
20210804103321 60 0 1.0 1.0 0.00 0.00 0.00 95 1028.1
20210804103220 60 0 1.0 1.0 0.00 0.00 0.00 95 1028.1
20210804103120 60 0 1.0 1.0 0.00 0.00 0.00 95 1028.1
20210804103020 60 0 1.0 1.0 0.00 0.00 0.00 95 1028.1
20210804102920 60 0 1.0 1.0 0.00 0.00 0.00 95 1028.1
20210804102819 60 0 1.0 1.0 0.00 0.00 0.00 95 1028.1
20210804102719 60 0 1.0 2.0 0.00 0.00 0.00 95 1028.1
20210804102620 60 0 1.0 2.0 0.00 0.00 0.00 95 1028.2
20210804102521 60 0 2.0 2.0 0.00 0.00 0.00 95 1028.1
20210804102421 60 0 1.0 2.0 0.00 0.00 0.00 95 1028.1
20210804102322 60 0 1.0 2.0 0.00 0.00 0.00 95 1028.2
20210804102221 60 0 1.0 2.0 0.00 0.00 0.00 95 1028.1
20210804102120 60 0 1.0 2.0 0.00 0.00 0.00 95 1028.2
20210804102020 60 0 1.0 2.0 0.00 0.00 0.00 95 1028.2
20210804101920 60 0 1.0 1.0 0.00 0.00 0.00 95 1028.2
20210804101820 60 0 1.0 2.0 0.00 0.00 0.00 95 1028.2
20210804101721 60 0 1.0 1.0 0.00 0.00 0.00 95 1028.2
20210804101624 60 0.0 1.0 0.00 0.00 0.00 95 1028.2
20210804101521 60 0.0 0.0 0.00 0.00 0.00 95 1028.2
20210804101420 60 0.0 0.0 0.00 0.00 0.00 95 1028.3
20210804101321 60 0.0 0.0 0.00 0.00 0.00 95 1028.3
20210804101221 60 0.0 0.0 0.00 0.00 0.00 95 1028.2
20210804101119 60 0.0 0.0 0.00 0.00 0.00 95 1028.2
20210804101020 60 0.0 0.0 0.00 0.00 0.00 95 1028.2
20210804100920 60 0.0 0.0 0.00 0.00 0.00 95 1028.2
20210804100821 60 0.0 0.0 0.00 0.00 0.00 95 1028.1
20210804100720 60 0.0 0.0 0.00 0.00 0.00 95 1028.1
20210804100620 60 0.0 0.0 0.00 0.00 0.00 95 1028.1
20210804100519 60 0.0 0.0 0.00 0.00 0.00 95 1028.0
20210804100419 60 0.0 0.0 0.00 0.00 0.00 95 1028.0
20210804100320 60 0.0 0.0 0.00 0.00 0.00 95 1028.0
20210804100220 60 0.0 0.0 0.00 0.00 0.00 95 1028.0
20210804100120 60 0.0 0.0 0.00 0.00 0.00 94 1028.0
20210804100020 60 0.0 0.0 0.00 0.00 0.00 94 1028.0
20210804095919 60 0.0 0.0 0.00 0.00 0.00 94 1028.0
20210804095820 60 0.0 0.0 0.00 0.00 0.00 94 1028.0
20210804095720 60 0.0 0.0 0.00 0.00 0.00 94 1028.0
20210804095620 60 0.0 1.0 0.00 0.00 0.00 94 1027.9
20210804095520 60 0 1.0 1.0 0.00 0.00 0.00 94 1027.9
20210804095419 60 0 1.0 1.0 0.00 0.00 0.00 94 1027.9
20210804095319 60 0.0 0.0 0.00 0.00 0.00 94 1027.8
20210804095220 60 0.0 0.0 0.00 0.00 0.00 94 1027.9
20210804095121 60 0.0 0.0 0.00 0.00 0.00 94 1027.9
20210804095020 60 0.0 0.0 0.00 0.00 0.00 94 1027.9
20210804094920 60 0.0 0.0 0.00 0.00 0.00 94 1027.9
20210804094820 60 0.0 0.0 0.00 0.00 0.00 94 1027.9
20210804094719 60 0.0 0.0 0.00 0.00 0.00 94 1027.9
20210804094620 60 0.0 0.0 0.00 0.00 0.00 94 1027.9
20210804094521 60 0.0 0.0 0.00 0.00 0.00 94 1027.8
20210804094420 60 0.0 0.0 0.00 0.00 0.00 94 1027.8
20210804094321 60 0.0 1.0 0.00 0.00 0.00 94 1027.9
20210804094221 60 0 1.0 1.0 0.00 0.00 0.00 94 1027.8
20210804094120 60 0.0 1.0 0.00 0.00 0.00 94 1027.8
20210804094021 60 0 1.0 1.0 0.00 0.00 0.00 94 1027.8
20210804093921 60 0 1.0 2.0 0.00 0.00 0.00 94 1027.8
20210804093820 60 0 1.0 2.0 0.00 0.00 0.00 94 1027.8
20210804093720 60 0 1.0 2.0 0.00 0.00 0.00 94 1027.8
20210804093620 60 0.0 1.0 0.00 0.00 0.00 94 1027.8
20210804093520 60 0.0 0.0 0.00 0.00 0.00 94 1027.8
20210804093420 60 0.0 0.0 0.00 0.00 0.00 94 1027.8
20210804093320 60 0.0 0.0 0.00 0.00 0.00 94 1027.8
20210804093220 60 0.0 0.0 0.00 0.00 0.00 94 1027.8
20210804093121 60 0.0 0.0 0.00 0.00 0.00 94 1027.8
20210804093020 60 0.0 0.0 0.00 0.00 0.00 94 1027.7
20210804092920 60 0.0 0.0 0.00 0.00 0.00 94 1027.7
20210804092820 60 0.0 0.0 0.00 0.00 0.00 94 1027.6
20210804092720 60 0.0 0.0 0.00 0.00 0.00 94 1027.6
20210804092620 60 0.0 0.0 0.00 0.00 0.00 94 1027.6
20210804092520 60 0.0 0.0 0.00 0.00 0.00 94 1027.6
20210804092421 60 0.0 0.0 0.00 0.00 0.00 94 1027.6
20210804092320 60 0.0 0.0 0.00 0.00 0.00 94 1027.6
20210804092220 61 0.0 0.0 0.00 0.00 0.00 94 1027.6
20210804092120 61 0.0 0.0 0.00 0.00 0.00 94 1027.6
20210804092020 61 0.0 0.0 0.00 0.00 0.00 94 1027.6
20210804091920 61 0.0 0.0 0.00 0.00 0.00 94 1027.6
20210804091820 61 0.0 0.0 0.00 0.00 0.00 94 1027.6
20210804091720 61 0.0 0.0 0.00 0.00 0.00 94 1027.5
20210804091621 61 0.0 0.0 0.00 0.00 0.00 94 1027.5
20210804091520 61 0.0 0.0 0.00 0.00 0.00 94 1027.5
20210804091420 61 0.0 0.0 0.00 0.00 0.00 94 1027.5
20210804091320 61 0.0 0.0 0.00 0.00 0.00 94 1027.5
20210804091220 61 0.0 0.0 0.00 0.00 0.00 94 1027.4
20210804091120 61 0.0 0.0 0.00 0.00 0.00 94 1027.4
20210804091021 61 0.0 0.0 0.00 0.00 0.00 94 1027.4
20210804090921 61 0.0 1.0 0.00 0.00 0.00 94 1027.4
20210804090821 61 0 1.0 1.0 0.00 0.00 0.00 94 1027.4
20210804090723 61 0 1.0 1.0 0.00 0.00 0.00 94 1027.4
20210804090620 61 0 1.0 1.0 0.00 0.00 0.00 94 1027.4
20210804090520 61 0 1.0 1.0 0.00 0.00 0.00 94 1027.4
20210804090420 61 0 1.0 2.0 0.00 0.00 0.00 94 1027.3
20210804090320 61 0 1.0 2.0 0.00 0.00 0.00 93 1027.4
20210804090220 61 0 1.0 1.0 0.00 0.00 0.00 93 1027.4
20210804090120 61 0 1.0 1.0 0.00 0.00 0.00 93 1027.3
20210804090020 61 0 1.0 1.0 0.00 0.00 0.00 93 1027.4
20210804085920 61 0 1.0 1.0 0.00 0.00 0.00 93 1027.4
20210804085820 61 0 1.0 1.0 0.00 0.00 0.00 93 1027.4
20210804085720 61 0.0 1.0 0.00 0.00 0.00 93 1027.5
20210804085621 61 0.0 1.0 0.00 0.00 0.00 93 1027.4
20210804085520 61 0.0 0.0 0.00 0.00 0.00 93 1027.5
20210804085421 61 0.0 1.0 0.00 0.00 0.00 93 1027.5
20210804085320 61 0.0 0.0 0.00 0.00 0.00 93 1027.4
20210804085220 61 0.0 0.0 0.00 0.00 0.00 93 1027.5
20210804085120 61 0.0 0.0 0.00 0.00 0.00 93 1027.4
20210804085020 61 0.0 0.0 0.00 0.00 0.00 93 1027.4
20210804084920 61 0.0 0.0 0.00 0.00 0.00 93 1027.4
20210804084820 61 0.0 0.0 0.00 0.00 0.00 93 1027.4
20210804084720 61 0.0 0.0 0.00 0.00 0.00 93 1027.4
20210804084620 61 0.0 0.0 0.00 0.00 0.00 93 1027.4
20210804084520 61 0.0 1.0 0.00 0.00 0.00 93 1027.4
20210804084420 61 0 1.0 1.0 0.00 0.00 0.00 93 1027.4
20210804084320 61 0 1.0 1.0 0.00 0.00 0.00 93 1027.4
20210804084220 61 350 0.0 0.0 0.00 0.00 0.00 93 1027.4
20210804084120 61 0.0 0.0 0.00 0.00 0.00 93 1027.4
20210804084021 61 0.0 0.0 0.00 0.00 0.00 93 1027.3
20210804083920 61 0.0 0.0 0.00 0.00 0.00 93 1027.3
20210804083820 61 0.0 0.0 0.00 0.00 0.00 93 1027.3
20210804083720 61 0.0 0.0 0.00 0.00 0.00 93 1027.3
20210804083620 61 0.0 0.0 0.00 0.00 0.00 93 1027.3
20210804083520 61 0.0 1.0 0.00 0.00 0.00 93 1027.3
20210804083420 61 0.0 1.0 0.00 0.00 0.00 93 1027.3
20210804083320 61 0.0 0.0 0.00 0.00 0.00 93 1027.3
20210804083220 61 0.0 0.0 0.00 0.00 0.00 93 1027.3
20210804083120 61 0.0 1.0 0.00 0.00 0.00 93 1027.4
20210804083019 61 0.0 0.0 0.00 0.00 0.00 93 1027.4
20210804082920 61 0.0 0.0 0.00 0.00 0.00 93 1027.4
20210804082820 61 0.0 0.0 0.00 0.00 0.00 93 1027.4
20210804082721 61 0.0 0.0 0.00 0.00 0.00 93 1027.4
20210804082620 61 0.0 1.0 0.00 0.00 0.00 93 1027.3
20210804082520 61 0.0 1.0 0.00 0.00 0.00 92 1027.3
20210804082420 61 0.0 1.0 0.00 0.00 0.00 92 1027.4
20210804082320 61 0 1.0 1.0 0.00 0.00 0.00 92 1027.3
20210804082220 61 0.0 0.0 0.00 0.00 0.00 92 1027.3
20210804082120 61 0.0 0.0 0.00 0.00 0.00 92 1027.3
20210804082020 61 0.0 0.0 0.00 0.00 0.00 92 1027.3
20210804081920 61 0.0 0.0 0.00 0.00 0.00 92 1027.3
20210804081819 61 0.0 0.0 0.00 0.00 0.00 92 1027.3
20210804081720 62 0.0 0.0 0.00 0.00 0.00 92 1027.2
20210804081620 62 0.0 0.0 0.00 0.00 0.00 92 1027.3
20210804081520 62 0.0 0.0 0.00 0.00 0.00 92 1027.3
20210804081420 62 0.0 1.0 0.00 0.00 0.00 92 1027.3
20210804081321 62 0.0 1.0 0.00 0.00 0.00 92 1027.4
20210804081220 62 0.0 0.0 0.00 0.00 0.00 92 1027.3
20210804081120 62 0.0 0.0 0.00 0.00 0.00 92 1027.4
20210804081020 62 0.0 0.0 0.00 0.00 0.00 92 1027.4
20210804080920 62 0.0 0.0 0.00 0.00 0.00 92 1027.4
20210804080820 62 0.0 0.0 0.00 0.00 0.00 92 1027.3
20210804080720 62 0.0 0.0 0.00 0.00 0.00 92 1027.3
20210804080620 62 0.0 0.0 0.00 0.00 0.00 92 1027.3
20210804080520 62 0.0 0.0 0.00 0.00 0.00 92 1027.3
20210804080420 62 0 1.0 1.0 0.00 0.00 0.00 92 1027.3
20210804080320 62 0 1.0 1.0 0.00 0.00 0.00 92 1027.3
20210804080220 62 0.0 0.0 0.00 0.00 0.00 92 1027.4
20210804080120 62 0.0 0.0 0.00 0.00 0.00 92 1027.3
20210804080020 62 0.0 0.0 0.00 0.00 0.00 92 1027.3
20210804075920 62 0.0 0.0 0.00 0.00 0.00 92 1027.4
20210804075821 62 0.0 1.0 0.00 0.00 0.00 92 1027.3
20210804075720 62 0 1.0 1.0 0.00 0.00 0.00 92 1027.3
20210804075620 62 0 1.0 2.0 0.00 0.00 0.00 92 1027.3
20210804075520 62 0 1.0 2.0 0.00 0.00 0.00 92 1027.2
20210804075420 62 0 1.0 1.0 0.00 0.00 0.00 91 1027.2
20210804075320 62 0 1.0 2.0 0.00 0.00 0.00 91 1027.3
20210804075220 62 0 1.0 2.0 0.00 0.00 0.00 91 1027.2
20210804075120 62 0 1.0 1.0 0.00 0.00 0.00 91 1027.3
20210804075020 62 0 1.0 1.0 0.00 0.00 0.00 91 1027.3
20210804074920 62 0 1.0 2.0 0.00 0.00 0.00 91 1027.3
20210804074820 62 0.0 1.0 0.00 0.00 0.00 91 1027.3
20210804074720 62 0.0 1.0 0.00 0.00 0.00 91 1027.3
20210804074620 62 0.0 1.0 0.00 0.00 0.00 91 1027.3
20210804074520 62 0 1.0 1.0 0.00 0.00 0.00 91 1027.2
20210804074420 62 0.0 1.0 0.00 0.00 0.00 91 1027.3
20210804074320 62 0.0 0.0 0.00 0.00 0.00 91 1027.2
20210804074220 62 0.0 0.0 0.00 0.00 0.00 91 1027.2
20210804074120 62 0.0 1.0 0.00 0.00 0.00 91 1027.2
20210804074020 62 0 1.0 1.0 0.00 0.00 0.00 91 1027.2
20210804073920 62 0 1.0 2.0 0.00 0.00 0.00 91 1027.1
20210804073821 62 0.0 0.0 0.00 0.00 0.00 91 1027.2
20210804073720 62 0.0 1.0 0.00 0.00 0.00 91 1027.1
20210804073620 62 0 1.0 1.0 0.00 0.00 0.00 91 1027.1
20210804073520 62 0.0 1.0 0.00 0.00 0.00 91 1027.2
20210804073420 62 0.0 1.0 0.00 0.00 0.00 91 1027.2
20210804073320 62 0 1.0 2.0 0.00 0.00 0.00 91 1027.1
20210804073220 62 0 1.0 2.0 0.00 0.00 0.00 91 1027.1
20210804073120 62 0.0 1.0 0.00 0.00 0.00 91 1027.1
20210804073020 62 0.0 1.0 0.00 0.00 0.00 91 1027.1
20210804072920 62 0 1.0 1.0 0.00 0.00 0.00 91 1027.1
20210804072821 62 0 1.0 1.0 0.00 0.00 0.00 91 1027.1
20210804072720 62 0 1.0 3.0 0.00 0.00 0.00 91 1027.1
20210804072620 62 0.0 0.0 0.00 0.00 0.00 91 1027.2
20210804072520 62 0.0 1.0 0.00 0.00 0.00 91 1027.2
20210804072420 62 0.0 1.0 0.00 0.00 0.00 91 1027.2
20210804072320 62 0.0 1.0 0.00 0.00 0.00 91 1027.2
20210804072220 62 0.0 1.0 0.00 0.00 0.00 91 1027.1
20210804072120 62 0 1.0 1.0 0.00 0.00 0.00 91 1027.1
20210804072020 62 0 1.0 2.0 0.00 0.00 0.00 91 1027.1
20210804071920 62 0 2.0 3.0 0.00 0.00 0.00 91 1027.2
20210804071820 63 338 1.0 2.0 0.00 0.00 0.00 91 1027.2
20210804071720 62 338 1.0 2.0 0.00 0.00 0.00 91 1027.2
20210804071621 62 338 1.0 2.0 0.00 0.00 0.00 91 1027.3
20210804071520 62 0.0 1.0 0.00 0.00 0.00 91 1027.3
20210804071420 63 338 1.0 2.0 0.00 0.00 0.00 91 1027.3
20210804071320 63 0.0 1.0 0.00 0.00 0.00 91 1027.3
20210804071220 63 0.0 1.0 0.00 0.00 0.00 91 1027.3
20210804071120 63 338 1.0 2.0 0.00 0.00 0.00 91 1027.3
20210804071020 63 0.0 1.0 0.00 0.00 0.00 91 1027.3
20210804070920 63 0.0 1.0 0.00 0.00 0.00 91 1027.3
20210804070820 63 338 1.0 2.0 0.00 0.00 0.00 91 1027.3
20210804070720 63 338 2.0 3.0 0.00 0.00 0.00 91 1027.3
20210804070622 63 338 2.0 3.0 0.00 0.00 0.00 91 1027.3
20210804070520 63 338 1.0 3.0 0.00 0.00 0.00 91 1027.3
20210804070420 63 338 2.0 3.0 0.00 0.00 0.00 91 1027.3
20210804070320 63 338 1.0 2.0 0.00 0.00 0.00 91 1027.3
20210804070220 63 338 1.0 2.0 0.00 0.00 0.00 91 1027.3
20210804070120 63 338 1.0 2.0 0.00 0.00 0.00 91 1027.3
20210804070020 63 338 1.0 2.0 0.00 0.00 0.00 91 1027.3
20210804065920 63 338 2.0 3.0 0.00 0.00 0.00 91 1027.3
20210804065820 63 338 1.0 2.0 0.00 0.00 0.00 91 1027.3
20210804065721 63 0 2.0 3.0 0.00 0.00 0.00 91 1027.3
20210804065621 63 0 2.0 3.0 0.00 0.00 0.00 91 1027.3
20210804065519 63 0 1.0 0.0 0.00 0.00 0.00 91 1027.2
20210804065420 63 0 2.0 2.0 0.00 0.00 0.00 91 1027.3
20210804065320 63 0 4.0 5.0 0.00 0.00 0.00 91 1027.2
20210804065220 63 0 3.0 4.0 0.00 0.00 0.00 91 1027.3
20210804065120 63 0 2.0 3.0 0.00 0.00 0.00 91 1027.3
20210804065020 63 0 2.0 3.0 0.00 0.00 0.00 91 1027.3
20210804064920 63 0 2.0 3.0 0.00 0.00 0.00 91 1027.3
20210804064820 63 0 2.0 4.0 0.00 0.00 0.00 91 1027.3
20210804064720 63 0 2.0 2.0 0.00 0.00 0.00 91 1027.3
20210804064620 63 0 2.0 3.0 0.00 0.00 0.00 91 1027.3
20210804064520 63 0 2.0 2.0 0.00 0.00 0.00 91 1027.3
20210804064420 63 0 2.0 3.0 0.00 0.00 0.00 91 1027.3
20210804064320 63 0 2.0 3.0 0.00 0.00 0.00 91 1027.3
20210804064220 63 0 2.0 3.0 0.00 0.00 0.00 91 1027.3
20210804064120 63 0 1.0 2.0 0.00 0.00 0.00 91 1027.3
20210804064020 63 0.0 1.0 0.00 0.00 0.00 91 1027.3
20210804063920 63 0 1.0 2.0 0.00 0.00 0.00 91 1027.4
20210804063820 63 0 2.0 3.0 0.00 0.00 0.00 91 1027.4
20210804063720 63 0.0 1.0 0.00 0.00 0.00 91 1027.3
20210804063620 63 0.0 1.0 0.00 0.00 0.00 91 1027.3
20210804063520 63 0 1.0 2.0 0.00 0.00 0.00 91 1027.3
20210804063420 63 0 1.0 3.0 0.00 0.00 0.00 91 1027.2
20210804063320 63 0 2.0 3.0 0.00 0.00 0.00 91 1027.2
20210804063220 63 0 2.0 3.0 0.00 0.00 0.00 91 1027.2
20210804063120 63 0 1.0 2.0 0.00 0.00 0.00 91 1027.2
20210804063020 63 0 1.0 2.0 0.00 0.00 0.00 91 1027.2
20210804062920 63 0 1.0 2.0 0.00 0.00 0.00 91 1027.2
20210804062820 63 0 1.0 3.0 0.00 0.00 0.00 91 1027.2
20210804062720 63 23 2.0 3.0 0.00 0.00 0.00 91 1027.2
20210804062620 63 0 2.0 3.0 0.00 0.00 0.00 91 1027.2
20210804062520 63 0 3.0 5.0 0.00 0.00 0.00 91 1027.2
20210804062420 63 0 1.0 2.0 0.00 0.00 0.00 91 1027.2
20210804062320 63 0 2.0 3.0 0.00 0.00 0.00 91 1027.2
20210804062220 63 338 2.0 3.0 0.00 0.00 0.00 91 1027.2
20210804062120 63 338 1.0 2.0 0.00 0.00 0.00 91 1027.2
20210804062020 63 338 2.0 3.0 0.00 0.00 0.00 91 1027.2
20210804061920 63 338 2.0 2.0 0.00 0.00 0.00 91 1027.2
20210804061820 63 338 1.0 3.0 0.00 0.00 0.00 92 1027.1
20210804061720 63 0 1.0 2.0 0.00 0.00 0.00 92 1027.1
20210804061620 62 0 2.0 3.0 0.00 0.00 0.00 92 1027.2
20210804061520 62 0 1.0 2.0 0.00 0.00 0.00 92 1027.3
20210804061420 62 0 1.0 2.0 0.00 0.00 0.00 92 1027.3
20210804061320 62 0 1.0 3.0 0.00 0.00 0.00 92 1027.3
20210804061219 62 0 2.0 3.0 0.00 0.00 0.00 92 1027.3
20210804061120 62 338 2.0 2.0 0.00 0.00 0.00 92 1027.4
20210804061020 62 338 2.0 2.0 0.00 0.00 0.00 92 1027.4
20210804060920 62 338 1.0 2.0 0.00 0.00 0.00 92 1027.4
20210804060820 62 338 1.0 2.0 0.00 0.00 0.00 92 1027.4
20210804060720 62 338 2.0 2.0 0.00 0.00 0.00 92 1027.4
20210804060620 62 338 2.0 2.0 0.00 0.00 0.00 92 1027.4
20210804060520 62 338 1.0 2.0 0.00 0.00 0.00 92 1027.3
20210804060420 62 338 2.0 2.0 0.00 0.00 0.00 92 1027.3
20210804060320 62 338 2.0 4.0 0.00 0.00 0.00 92 1027.3
20210804060219 62 338 3.0 4.0 0.00 0.00 0.00 92 1027.3
20210804060120 62 338 2.0 3.0 0.00 0.00 0.00 92 1027.3
20210804060020 62 338 2.0 3.0 0.00 0.00 0.00 92 1027.3
20210804055920 62 0 2.0 3.0 0.00 0.00 0.00 92 1027.3
20210804055820 62 0 1.0 2.0 0.00 0.00 0.00 92 1027.3
20210804055720 62 0 2.0 3.0 0.00 0.00 0.00 92 1027.3
20210804055620 62 338 2.0 3.0 0.00 0.00 0.00 92 1027.3
20210804055520 62 338 2.0 4.0 0.00 0.00 0.00 92 1027.3
20210804055420 62 315 2.0 3.0 0.00 0.00 0.00 92 1027.4
20210804055320 62 338 3.0 4.0 0.00 0.00 0.00 92 1027.4
20210804055220 62 0 2.0 3.0 0.00 0.00 0.00 92 1027.4
20210804055120 62 338 2.0 4.0 0.00 0.00 0.00 92 1027.3
20210804055020 62 338 2.0 3.0 0.00 0.00 0.00 93 1027.4
20210804054920 62 338 1.0 2.0 0.00 0.00 0.00 93 1027.4
20210804054819 62 338 2.0 4.0 0.00 0.00 0.00 93 1027.4
20210804054719 62 338 2.0 3.0 0.00 0.00 0.00 93 1027.5
20210804054620 62 315 2.0 3.0 0.00 0.00 0.00 93 1027.4
20210804054520 62 315 2.0 3.0 0.00 0.00 0.00 93 1027.4
20210804054420 62 315 2.0 3.0 0.00 0.00 0.00 93 1027.4
20210804054320 62 315 2.0 3.0 0.00 0.00 0.00 93 1027.4
20210804054220 62 315 2.0 3.0 0.00 0.00 0.00 93 1027.4
20210804054120 62 315 2.0 3.0 0.00 0.00 0.00 93 1027.5
20210804054020 62 315 2.0 3.0 0.00 0.00 0.00 93 1027.5
20210804053920 62 338 3.0 4.0 0.00 0.00 0.00 93 1027.5
20210804053820 62 338 2.0 3.0 0.00 0.00 0.00 93 1027.5
20210804053720 62 338 2.0 3.0 0.00 0.00 0.00 93 1027.5
20210804053620 62 338 3.0 4.0 0.00 0.00 0.00 93 1027.5
20210804053520 62 338 2.0 3.0 0.00 0.00 0.00 93 1027.5
20210804053420 62 338 2.0 2.0 0.00 0.00 0.00 93 1027.5
20210804053320 62 338 2.0 3.0 0.00 0.00 0.00 93 1027.5
20210804053220 62 0 2.0 2.0 0.00 0.00 0.00 93 1027.5
20210804053120 62 0 2.0 3.0 0.00 0.00 0.00 93 1027.5
20210804053020 62 0 2.0 3.0 0.00 0.00 0.00 93 1027.5
20210804052920 62 0 2.0 4.0 0.00 0.00 0.00 93 1027.5
20210804052820 62 0 2.0 3.0 0.00 0.00 0.00 93 1027.5
20210804052720 62 0 2.0 3.0 0.00 0.00 0.00 93 1027.5
20210804052620 62 0 2.0 2.0 0.00 0.00 0.00 93 1027.5
20210804052520 62 0 2.0 3.0 0.00 0.00 0.00 93 1027.5
20210804052420 62 0 2.0 4.0 0.00 0.00 0.00 93 1027.6
20210804052320 62 338 2.0 3.0 0.00 0.00 0.00 93 1027.6
20210804052220 62 0 3.0 3.0 0.00 0.00 0.00 93 1027.6
20210804052120 62 338 3.0 3.0 0.00 0.00 0.00 93 1027.5
20210804052020 62 338 2.0 3.0 0.00 0.00 0.00 93 1027.5
20210804051920 62 338 2.0 3.0 0.00 0.00 0.00 93 1027.4
20210804051820 62 0 3.0 3.0 0.00 0.00 0.00 92 1027.4
20210804051720 62 0 2.0 3.0 0.00 0.00 0.00 92 1027.3
20210804051619 62 0 2.0 3.0 0.00 0.00 0.00 92 1027.3
20210804051520 62 0 2.0 3.0 0.00 0.00 0.00 92 1027.3
20210804051419 62 0 2.0 3.0 0.00 0.00 0.00 92 1027.3
20210804051320 62 0 2.0 3.0 0.00 0.00 0.00 92 1027.3
20210804051220 62 0 2.0 2.0 0.00 0.00 0.00 92 1027.3
20210804051120 62 0 2.0 2.0 0.00 0.00 0.00 92 1027.3
20210804051020 62 0 2.0 2.0 0.00 0.00 0.00 92 1027.3
20210804050920 62 0 2.0 2.0 0.00 0.00 0.00 92 1027.3
20210804050820 62 0 2.0 2.0 0.00 0.00 0.00 92 1027.3
20210804050719 62 0 1.0 2.0 0.00 0.00 0.00 92 1027.3
20210804050620 62 0 1.0 2.0 0.00 0.00 0.00 92 1027.3
20210804050521 62 0.0 1.0 0.00 0.00 0.00 92 1027.3
20210804050419 62 0.0 0.0 0.00 0.00 0.00 92 1027.2
20210804050319 63 0.0 0.0 0.00 0.00 0.00 92 1027.3
20210804050219 63 0.0 0.0 0.00 0.00 0.00 92 1027.3
20210804050119 63 0.0 0.0 0.00 0.00 0.00 92 1027.3
20210804050020 63 0.0 1.0 0.00 0.00 0.00 92 1027.4
20210804045920 63 0.0 1.0 0.00 0.00 0.00 91 1027.3
20210804045820 63 0.0 0.0 0.00 0.00 0.00 91 1027.3
20210804045721 63 0.0 1.0 0.00 0.00 0.00 91 1027.3
20210804045619 63 0 1.0 1.0 0.00 0.00 0.00 91 1027.3
20210804045520 63 0 1.0 2.0 0.00 0.00 0.00 91 1027.2
20210804045419 63 0 1.0 2.0 0.00 0.00 0.00 91 1027.2
20210804045320 63 0 2.0 3.0 0.00 0.00 0.00 91 1027.2
20210804045219 63 0 2.0 3.0 0.00 0.00 0.00 91 1027.3
20210804045119 63 0 1.0 2.0 0.00 0.00 0.00 91 1027.3
20210804045019 63 0.0 0.0 0.00 0.00 0.00 91 1027.3
20210804044919 63 0.0 0.0 0.00 0.00 0.00 91 1027.3
20210804044820 63 0.0 0.0 0.00 0.00 0.00 91 1027.4
20210804044720 63 0.0 0.0 0.00 0.00 0.00 91 1027.4
20210804044620 63 0.0 1.0 0.00 0.00 0.00 91 1027.3
20210804044519 63 0.0 1.0 0.00 0.00 0.00 91 1027.4
20210804044419 63 0.0 1.0 0.00 0.00 0.00 91 1027.3
20210804044319 63 0.0 1.0 0.00 0.00 0.00 91 1027.3
20210804044220 63 0.0 0.0 0.00 0.00 0.00 91 1027.3
20210804044120 63 0.0 0.0 0.00 0.00 0.00 91 1027.3
20210804044019 63 0.0 0.0 0.00 0.00 0.00 91 1027.3
20210804043919 63 0.0 0.0 0.00 0.00 0.00 91 1027.3
20210804043819 63 0.0 0.0 0.00 0.00 0.00 91 1027.2
20210804043720 63 0 1.0 1.0 0.00 0.00 0.00 91 1027.3
20210804043620 63 0 1.0 2.0 0.00 0.00 0.00 91 1027.3
20210804043520 63 0 2.0 2.0 0.00 0.00 0.00 91 1027.2
20210804043419 63 0 1.0 2.0 0.00 0.00 0.00 91 1027.2
20210804043320 63 0 1.0 2.0 0.00 0.00 0.00 91 1027.3
20210804043219 63 0 2.0 3.0 0.00 0.00 0.00 91 1027.3
20210804043119 63 0 1.0 2.0 0.00 0.00 0.00 91 1027.2
20210804043019 63 0 1.0 2.0 0.00 0.00 0.00 91 1027.2
20210804042919 63 0 2.0 4.0 0.00 0.00 0.00 91 1027.2
20210804042819 63 338 1.0 3.0 0.00 0.00 0.00 91 1027.2
20210804042719 63 338 2.0 2.0 0.00 0.00 0.00 91 1027.3
20210804042619 63 338 1.0 2.0 0.00 0.00 0.00 91 1027.3
20210804042520 63 338 2.0 3.0 0.00 0.00 0.00 91 1027.3
20210804042420 63 338 3.0 4.0 0.00 0.00 0.00 91 1027.3
20210804042320 63 338 2.0 3.0 0.00 0.00 0.00 91 1027.3
20210804042219 63 338 2.0 2.0 0.00 0.00 0.00 91 1027.3
20210804042120 63 338 1.0 2.0 0.00 0.00 0.00 91 1027.3
20210804042020 63 338 2.0 4.0 0.00 0.00 0.00 91 1027.3
20210804041920 63 338 2.0 4.0 0.00 0.00 0.00 91 1027.3
20210804041819 63 338 3.0 4.0 0.00 0.00 0.00 91 1027.3
20210804041719 63 338 2.0 3.0 0.00 0.00 0.00 92 1027.3
20210804041619 63 338 2.0 3.0 0.00 0.00 0.00 92 1027.3
20210804041519 63 338 2.0 3.0 0.00 0.00 0.00 92 1027.3
20210804041420 63 338 2.0 3.0 0.00 0.00 0.00 92 1027.2
20210804041320 63 338 2.0 3.0 0.00 0.00 0.00 92 1027.2
20210804041219 63 338 1.0 2.0 0.00 0.00 0.00 92 1027.3
20210804041119 63 338 3.0 5.0 0.00 0.00 0.00 92 1027.3
20210804041020 63 338 3.0 4.0 0.00 0.00 0.00 92 1027.3
20210804040919 63 338 3.0 3.0 0.00 0.00 0.00 92 1027.3
20210804040819 63 338 2.0 3.0 0.00 0.00 0.00 92 1027.3
20210804040719 63 338 3.0 4.0 0.00 0.00 0.00 92 1027.3
20210804040620 63 338 3.0 4.0 0.00 0.00 0.00 92 1027.3
20210804040520 63 338 3.0 4.0 0.00 0.00 0.00 92 1027.3
20210804040421 63 338 1.0 2.0 0.00 0.00 0.00 92 1027.3
20210804040320 63 338 1.0 2.0 0.00 0.00 0.00 92 1027.3
20210804040219 63 338 1.0 2.0 0.00 0.00 0.00 92 1027.3
20210804040119 63 338 2.0 4.0 0.00 0.00 0.00 92 1027.3
20210804040020 63 338 2.0 3.0 0.00 0.00 0.00 92 1027.2
20210804035920 63 338 2.0 3.0 0.00 0.00 0.00 92 1027.3
20210804035819 63 338 1.0 2.0 0.00 0.00 0.00 92 1027.3
20210804035720 63 338 2.0 2.0 0.00 0.00 0.00 92 1027.3
20210804035619 63 338 1.0 2.0 0.00 0.00 0.00 92 1027.3
20210804035519 63 338 1.0 2.0 0.00 0.00 0.00 92 1027.3
20210804035420 63 338 1.0 1.0 0.00 0.00 0.00 92 1027.4
20210804035320 63 338 1.0 1.0 0.00 0.00 0.00 92 1027.3
20210804035219 63 338 1.0 2.0 0.00 0.00 0.00 92 1027.4
20210804035120 63 338 1.0 2.0 0.00 0.00 0.00 92 1027.4
20210804035019 63 338 1.0 2.0 0.00 0.00 0.00 92 1027.3
20210804034919 63 338 1.0 2.0 0.00 0.00 0.00 92 1027.3
20210804034820 63 338 2.0 2.0 0.00 0.00 0.00 92 1027.3
20210804034719 63 338 2.0 3.0 0.00 0.00 0.00 92 1027.3
20210804034620 63 338 2.0 3.0 0.00 0.00 0.00 92 1027.3
20210804034520 63 338 2.0 3.0 0.00 0.00 0.00 92 1027.3
20210804034419 63 338 2.0 3.0 0.00 0.00 0.00 93 1027.3
20210804034319 63 338 3.0 4.0 0.00 0.00 0.00 93 1027.3
20210804034220 63 338 3.0 4.0 0.00 0.00 0.00 93 1027.3
20210804034119 63 338 3.0 4.0 0.00 0.00 0.00 93 1027.3
20210804034019 63 338 3.0 3.0 0.00 0.00 0.00 92 1027.3
20210804033919 63 338 2.0 3.0 0.00 0.00 0.00 92 1027.3
20210804033819 62 180 1.0 2.0 0.00 0.00 0.00 92 1027.4
20210804033719 62 180 1.0 2.0 0.00 0.00 0.00 92 1027.3
20210804033619 62 180 1.0 2.0 0.00 0.00 0.00 92 1027.3
20210804033519 62 0.0 1.0 0.00 0.00 0.00 92 1027.3
20210804033420 62 0.0 1.0 0.00 0.00 0.00 92 1027.4
20210804033320 62 0.0 1.0 0.00 0.00 0.00 92 1027.4
20210804033220 62 0.0 0.0 0.00 0.00 0.00 92 1027.3
20210804033120 62 0.0 1.0 0.00 0.00 0.00 92 1027.4
20210804033020 62 0.0 1.0 0.00 0.00 0.00 92 1027.4
20210804032919 62 180 1.0 1.0 0.00 0.00 0.00 92 1027.4
20210804032819 62 0.0 1.0 0.00 0.00 0.00 92 1027.5
20210804032720 62 180 1.0 1.0 0.00 0.00 0.00 92 1027.5
20210804032619 62 0.0 1.0 0.00 0.00 0.00 92 1027.5
20210804032519 62 0.0 1.0 0.00 0.00 0.00 92 1027.5
20210804032419 62 0.0 0.0 0.00 0.00 0.00 92 1027.4
20210804032319 62 0.0 0.0 0.00 0.00 0.00 92 1027.4
20210804032219 62 0.0 0.0 0.00 0.00 0.00 92 1027.4
20210804032119 62 0.0 0.0 0.00 0.00 0.00 92 1027.4
20210804032020 62 0.0 0.0 0.00 0.00 0.00 92 1027.4
20210804031919 62 0.0 0.0 0.00 0.00 0.00 91 1027.4
20210804031819 62 0.0 0.0 0.00 0.00 0.00 91 1027.4
20210804031719 62 0.0 1.0 0.00 0.00 0.00 91 1027.4
20210804031619 63 0.0 1.0 0.00 0.00 0.00 91 1027.4
20210804031519 63 0.0 1.0 0.00 0.00 0.00 91 1027.4
20210804031419 62 0.0 1.0 0.00 0.00 0.00 91 1027.3
20210804031319 63 0.0 1.0 0.00 0.00 0.00 91 1027.3
20210804031219 63 180 1.0 1.0 0.00 0.00 0.00 91 1027.3
20210804031120 63 0.0 1.0 0.00 0.00 0.00 91 1027.3
20210804031020 63 0.0 1.0 0.00 0.00 0.00 91 1027.3
20210804030919 63 0.0 1.0 0.00 0.00 0.00 91 1027.3
20210804030819 63 180 1.0 1.0 0.00 0.00 0.00 91 1027.4
20210804030719 63 180 1.0 1.0 0.00 0.00 0.00 91 1027.4
20210804030619 63 180 1.0 2.0 0.00 0.00 0.00 91 1027.4
20210804030520 63 180 1.0 1.0 0.00 0.00 0.00 91 1027.3
20210804030419 63 180 1.0 1.0 0.00 0.00 0.00 91 1027.3
20210804030319 63 180 1.0 1.0 0.00 0.00 0.00 91 1027.3
20210804030219 63 0.0 1.0 0.00 0.00 0.00 91 1027.3
20210804030119 63 0.0 0.0 0.00 0.00 0.00 91 1027.3
20210804030020 63 0.0 1.0 0.00 0.00 0.00 91 1027.3
20210804025919 63 180 1.0 1.0 0.00 0.00 0.00 91 1027.3
20210804025820 63 180 1.0 1.0 0.00 0.00 0.00 91 1027.3
20210804025719 63 0.0 0.0 0.00 0.00 0.00 91 1027.3
20210804025619 63 0.0 0.0 0.00 0.00 0.00 91 1027.2
20210804025519 63 0.0 1.0 0.00 0.00 0.00 91 1027.3
20210804025419 63 0.0 1.0 0.00 0.00 0.00 91 1027.2
20210804025319 63 180 1.0 2.0 0.00 0.00 0.00 91 1027.3
20210804025219 63 180 1.0 1.0 0.00 0.00 0.00 90 1027.3
20210804025119 63 180 1.0 2.0 0.00 0.00 0.00 90 1027.3
20210804025019 63 180 2.0 2.0 0.00 0.00 0.00 90 1027.4
20210804024920 63 180 2.0 2.0 0.00 0.00 0.00 90 1027.3
20210804024819 63 180 2.0 2.0 0.00 0.00 0.00 90 1027.3
20210804024720 63 180 1.0 2.0 0.00 0.00 0.00 90 1027.3
20210804024619 63 180 1.0 2.0 0.00 0.00 0.00 90 1027.3
20210804024519 63 180 1.0 1.0 0.00 0.00 0.00 90 1027.3
20210804024420 63 180 1.0 1.0 0.00 0.00 0.00 90 1027.4
20210804024319 63 180 1.0 1.0 0.00 0.00 0.00 90 1027.4
20210804024219 63 180 1.0 2.0 0.00 0.00 0.00 90 1027.4
20210804024120 63 180 1.0 2.0 0.00 0.00 0.00 90 1027.3
20210804024019 63 180 1.0 1.0 0.00 0.00 0.00 90 1027.3
20210804023919 63 180 1.0 2.0 0.00 0.00 0.00 90 1027.3
20210804023819 63 0.0 1.0 0.00 0.00 0.00 90 1027.2
20210804023719 63 0.0 0.0 0.00 0.00 0.00 90 1027.3
20210804023619 63 0.0 0.0 0.00 0.00 0.00 90 1027.2
20210804023519 63 0.0 1.0 0.00 0.00 0.00 90 1027.2
20210804023419 63 180 1.0 1.0 0.00 0.00 0.00 90 1027.2
20210804023320 63 180 1.0 1.0 0.00 0.00 0.00 90 1027.2
20210804023219 63 180 1.0 1.0 0.00 0.00 0.00 90 1027.2
20210804023119 63 180 1.0 2.0 0.00 0.00 0.00 90 1027.3
20210804023020 63 180 1.0 1.0 0.00 0.00 0.00 90 1027.2
20210804022919 63 180 1.0 1.0 0.00 0.00 0.00 90 1027.3
20210804022819 63 180 1.0 1.0 0.00 0.00 0.00 90 1027.3
20210804022719 63 180 1.0 1.0 0.00 0.00 0.00 90 1027.3
20210804022619 63 180 1.0 1.0 0.00 0.00 0.00 90 1027.2
20210804022519 63 180 1.0 1.0 0.00 0.00 0.00 90 1027.2
20210804022419 63 180 1.0 1.0 0.00 0.00 0.00 89 1027.2
20210804022319 63 180 1.0 1.0 0.00 0.00 0.00 89 1027.2
20210804022219 63 180 1.0 1.0 0.00 0.00 0.00 89 1027.2
20210804022119 63 180 1.0 2.0 0.00 0.00 0.00 89 1027.2
20210804022019 63 180 1.0 2.0 0.00 0.00 0.00 89 1027.2
20210804021919 63 180 1.0 2.0 0.00 0.00 0.00 89 1027.2
20210804021819 63 180 1.0 2.0 0.00 0.00 0.00 89 1027.2
20210804021719 63 180 1.0 1.0 0.00 0.00 0.00 89 1027.3
20210804021619 63 180 1.0 2.0 0.00 0.00 0.00 89 1027.3
20210804021519 63 180 1.0 2.0 0.00 0.00 0.00 89 1027.3
20210804021419 63 180 1.0 2.0 0.00 0.00 0.00 89 1027.3
20210804021319 63 180 1.0 2.0 0.00 0.00 0.00 89 1027.3
20210804021219 63 180 1.0 1.0 0.00 0.00 0.00 89 1027.3
20210804021119 63 180 1.0 2.0 0.00 0.00 0.00 89 1027.3
20210804021019 63 180 1.0 2.0 0.00 0.00 0.00 89 1027.3
20210804020919 63 180 1.0 2.0 0.00 0.00 0.00 89 1027.3
20210804020819 63 180 1.0 1.0 0.00 0.00 0.00 89 1027.3
20210804020719 63 0.0 0.0 0.00 0.00 0.00 89 1027.4
20210804020619 63 0.0 0.0 0.00 0.00 0.00 89 1027.4
20210804020519 63 0.0 0.0 0.00 0.00 0.00 89 1027.4
20210804020419 63 0.0 1.0 0.00 0.00 0.00 89 1027.5
20210804020320 63 180 1.0 1.0 0.00 0.00 0.00 89 1027.4
20210804020219 63 180 1.0 1.0 0.00 0.00 0.00 89 1027.4
20210804020120 63 180 1.0 2.0 0.00 0.00 0.00 89 1027.4
20210804020020 63 180 1.0 1.0 0.00 0.00 0.00 89 1027.3
20210804015919 63 180 1.0 2.0 0.00 0.00 0.00 88 1027.3
20210804015819 63 180 1.0 2.0 0.00 0.00 0.00 88 1027.3
20210804015719 63 180 1.0 1.0 0.00 0.00 0.00 88 1027.3
20210804015619 63 180 1.0 1.0 0.00 0.00 0.00 88 1027.4
20210804015520 63 180 1.0 1.0 0.00 0.00 0.00 88 1027.3
20210804015419 63 180 1.0 2.0 0.00 0.00 0.00 88 1027.4
20210804015319 64 180 1.0 2.0 0.00 0.00 0.00 88 1027.4
20210804015219 64 180 1.0 1.0 0.00 0.00 0.00 88 1027.3
20210804015119 64 180 1.0 1.0 0.00 0.00 0.00 88 1027.3
20210804015019 64 0.0 1.0 0.00 0.00 0.00 88 1027.3
20210804014920 64 0.0 1.0 0.00 0.00 0.00 88 1027.3
20210804014820 64 180 1.0 1.0 0.00 0.00 0.00 88 1027.4
20210804014719 64 180 1.0 1.0 0.00 0.00 0.00 88 1027.4
20210804014619 64 180 1.0 1.0 0.00 0.00 0.00 88 1027.4
20210804014520 64 180 1.0 1.0 0.00 0.00 0.00 88 1027.4
20210804014419 64 0.0 1.0 0.00 0.00 0.00 88 1027.4
20210804014319 64 180 1.0 1.0 0.00 0.00 0.00 88 1027.4
20210804014219 64 180 2.0 2.0 0.00 0.00 0.00 88 1027.4
20210804014119 64 180 1.0 2.0 0.00 0.00 0.00 88 1027.5
20210804014019 64 180 1.0 2.0 0.00 0.00 0.00 88 1027.5
20210804013919 64 180 1.0 1.0 0.00 0.00 0.00 88 1027.4
20210804013819 64 180 1.0 2.0 0.00 0.00 0.00 88 1027.5
20210804013719 64 180 1.0 1.0 0.00 0.00 0.00 87 1027.4
20210804013619 64 0.0 1.0 0.00 0.00 0.00 87 1027.5
20210804013519 64 0.0 1.0 0.00 0.00 0.00 87 1027.4
20210804013419 64 0.0 1.0 0.00 0.00 0.00 87 1027.5
20210804013319 64 0.0 1.0 0.00 0.00 0.00 87 1027.5
20210804013219 64 0.0 1.0 0.00 0.00 0.00 87 1027.5
20210804013119 64 180 1.0 1.0 0.00 0.00 0.00 87 1027.5
20210804013019 64 180 1.0 1.0 0.00 0.00 0.00 87 1027.5
20210804012919 64 180 1.0 1.0 0.00 0.00 0.00 87 1027.4
20210804012819 64 180 1.0 2.0 0.00 0.00 0.00 87 1027.5
20210804012719 64 180 1.0 1.0 0.00 0.00 0.00 87 1027.4
20210804012619 64 180 1.0 2.0 0.00 0.00 0.00 87 1027.4
20210804012519 64 180 1.0 2.0 0.00 0.00 0.00 87 1027.4
20210804012419 64 180 1.0 2.0 0.00 0.00 0.00 87 1027.4
20210804012319 64 180 1.0 2.0 0.00 0.00 0.00 87 1027.4
20210804012219 64 180 1.0 2.0 0.00 0.00 0.00 87 1027.4
20210804012119 64 180 1.0 1.0 0.00 0.00 0.00 87 1027.4
20210804012019 64 180 1.0 2.0 0.00 0.00 0.00 87 1027.4
20210804011919 64 180 1.0 2.0 0.00 0.00 0.00 87 1027.4
20210804011819 64 180 1.0 1.0 0.00 0.00 0.00 87 1027.3
20210804011719 64 180 1.0 1.0 0.00 0.00 0.00 87 1027.4
20210804011619 64 180 1.0 1.0 0.00 0.00 0.00 87 1027.4
20210804011520 65 180 1.0 1.0 0.00 0.00 0.00 86 1027.3
20210804011420 65 180 1.0 1.0 0.00 0.00 0.00 86 1027.4
20210804011320 65 180 1.0 1.0 0.00 0.00 0.00 86 1027.3
20210804011219 65 180 1.0 1.0 0.00 0.00 0.00 86 1027.3
20210804011119 65 180 1.0 1.0 0.00 0.00 0.00 86 1027.3
20210804011020 65 180 1.0 1.0 0.00 0.00 0.00 86 1027.3
20210804010919 65 180 1.0 1.0 0.00 0.00 0.00 86 1027.3
20210804010819 65 180 1.0 1.0 0.00 0.00 0.00 86 1027.3
20210804010719 65 180 1.0 1.0 0.00 0.00 0.00 86 1027.2
20210804010619 65 180 1.0 1.0 0.00 0.00 0.00 86 1027.3
20210804010519 65 180 1.0 1.0 0.00 0.00 0.00 85 1027.2
20210804010420 65 180 1.0 1.0 0.00 0.00 0.00 85 1027.2
20210804010319 65 180 1.0 1.0 0.00 0.00 0.00 85 1027.2
20210804010219 65 180 1.0 2.0 0.00 0.00 0.00 85 1027.2
20210804010119 65 180 1.0 2.0 0.00 0.00 0.00 85 1027.3
20210804010019 65 180 1.0 2.0 0.00 0.00 0.00 85 1027.2
20210804005919 65 180 1.0 1.0 0.00 0.00 0.00 85 1027.1
20210804005819 65 180 1.0 1.0 0.00 0.00 0.00 85 1027.1
20210804005719 65 0.0 1.0 0.00 0.00 0.00 85 1027.0
20210804005619 65 180 1.0 1.0 0.00 0.00 0.00 85 1027.0
20210804005519 65 180 1.0 1.0 0.00 0.00 0.00 84 1027.1
20210804005419 65 180 1.0 1.0 0.00 0.00 0.00 85 1027.0
20210804005319 65 180 1.0 1.0 0.00 0.00 0.00 84 1027.0
20210804005219 65 0.0 1.0 0.00 0.00 0.00 84 1027.0
20210804005119 65 0.0 0.0 0.00 0.00 0.00 84 1027.0
20210804005019 65 0.0 0.0 0.00 0.00 0.00 84 1027.0
20210804004919 66 0.0 1.0 0.00 0.00 0.00 84 1027.0
20210804004819 66 0.0 1.0 0.00 0.00 0.00 84 1027.0
20210804004719 66 0.0 1.0 0.00 0.00 0.00 84 1027.1
20210804004619 66 0.0 1.0 0.00 0.00 0.00 84 1027.1
20210804004519 66 180 1.0 1.0 0.00 0.00 0.00 84 1027.0
20210804004419 66 180 1.0 1.0 0.00 0.00 0.00 84 1027.0
20210804004319 66 180 1.0 1.0 0.00 0.00 0.00 84 1027.0
20210804004219 66 0.0 1.0 0.00 0.00 0.00 83 1027.0
20210804004119 66 180 1.0 1.0 0.00 0.00 0.00 83 1026.9
20210804004019 66 180 1.0 2.0 0.00 0.00 0.00 83 1027.0
20210804003919 66 0.0 1.0 0.00 0.00 0.00 83 1026.9
20210804003819 66 180 1.0 1.0 0.00 0.00 0.00 83 1027.0
20210804003719 66 180 1.0 2.0 0.00 0.00 0.00 83 1026.9
20210804003619 66 180 1.0 1.0 0.00 0.00 0.00 83 1026.9
20210804003519 66 180 1.0 2.0 0.00 0.00 0.00 82 1026.9
20210804003419 66 180 1.0 1.0 0.00 0.00 0.00 82 1026.9
20210804003319 66 180 1.0 1.0 0.00 0.00 0.00 82 1027.0
20210804003219 66 180 1.0 2.0 0.00 0.00 0.00 82 1026.9
20210804003119 66 180 1.0 2.0 0.00 0.00 0.00 82 1026.9
20210804003019 66 180 1.0 2.0 0.00 0.00 0.00 82 1027.0
20210804002919 66 180 1.0 2.0 0.00 0.00 0.00 82 1027.0
20210804002820 66 180 1.0 1.0 0.00 0.00 0.00 82 1027.0
20210804002719 67 180 1.0 2.0 0.00 0.00 0.00 82 1027.0
20210804002619 67 0.0 1.0 0.00 0.00 0.00 82 1027.0
20210804002519 67 0.0 0.0 0.00 0.00 0.00 81 1027.0
20210804002419 67 0.0 0.0 0.00 0.00 0.00 82 1026.9
20210804002319 67 0.0 0.0 0.00 0.00 0.00 82 1026.9
20210804002219 67 0.0 0.0 0.00 0.00 0.00 82 1027.0
20210804002119 67 0.0 0.0 0.00 0.00 0.00 81 1026.9
20210804002019 67 0.0 1.0 0.00 0.00 0.00 81 1027.0
20210804001919 67 180 1.0 1.0 0.00 0.00 0.00 81 1027.0
20210804001819 67 180 1.0 1.0 0.00 0.00 0.00 81 1027.0
20210804001719 67 180 1.0 2.0 0.00 0.00 0.00 81 1027.0
20210804001619 67 180 1.0 2.0 0.00 0.00 0.00 81 1027.0
20210804001519 67 180 1.0 2.0 0.00 0.00 0.00 80 1027.1
20210804001419 67 180 1.0 2.0 0.00 0.00 0.00 80 1027.0
20210804001319 67 180 1.0 1.0 0.00 0.00 0.00 80 1027.1
20210804001219 68 180 1.0 2.0 0.00 0.00 0.00 80 1027.1
20210804001119 68 180 1.0 1.0 0.00 0.00 0.00 80 1027.0
20210804001019 68 180 1.0 1.0 0.00 0.00 0.00 79 1027.0
20210804000919 68 180 1.0 1.0 0.00 0.00 0.00 79 1027.0
20210804000819 68 0.0 1.0 0.00 0.00 0.00 79 1027.1
20210804000719 68 180 1.0 1.0 0.00 0.00 0.00 79 1027.1
20210804000619 68 180 1.0 1.0 0.00 0.00 0.00 78 1027.0
20210804000519 68 180 1.0 1.0 0.00 0.00 0.00 78 1027.0
20210804000419 68 180 1.0 2.0 0.00 0.00 0.00 78 1027.0
20210804000319 68 180 1.0 1.0 0.00 0.00 0.00 78 1027.0
20210804000220 68 0.0 1.0 0.00 0.00 0.00 78 1026.9
20210804000120 68 0.0 0.0 0.00 0.00 0.00 78 1026.9
20210804000019 68 0.0 0.0 0.00 0.00 0.00 78 1026.9
20210803235919 69 0.0 0.0 0.00 0.00 0.00 78 1026.9
20210803235819 69 0.0 1.0 0.00 0.00 0.00 77 1026.8
20210803235719 69 0.0 1.0 0.00 0.00 0.00 76 1026.9
20210803235619 69 0.0 1.0 0.00 0.00 0.00 76 1026.9
20210803235519 69 0.0 1.0 0.00 0.00 0.00 76 1026.9
20210803235419 69 180 1.0 1.0 0.00 0.00 0.00 76 1026.9
20210803235319 69 180 1.0 1.0 0.00 0.00 0.00 76 1026.9
20210803235219 69 0.0 1.0 0.00 0.00 0.00 77 1027.0
20210803235119 69 0.0 1.0 0.00 0.00 0.00 76 1027.0
20210803235019 70 0.0 1.0 0.00 0.00 0.00 76 1027.0
20210803234919 70 0.0 1.0 0.00 0.00 0.00 75 1027.0
20210803234819 70 180 1.0 1.0 0.00 0.00 0.00 75 1027.0
20210803234719 70 180 1.0 1.0 0.00 0.00 0.00 74 1026.9
20210803234619 70 180 1.0 2.0 0.00 0.00 0.00 75 1026.9
20210803234519 70 180 1.0 1.0 0.00 0.00 0.00 75 1026.8
20210803234419 70 180 1.0 1.0 0.00 0.00 0.00 76 1026.8
20210803234319 71 180 1.0 1.0 0.00 0.00 0.00 75 1026.8
20210803234219 71 180 1.0 1.0 0.00 0.00 0.00 75 1026.8
20210803234121 71 0.0 1.0 0.00 0.00 0.00 75 1026.8
20210803234019 71 0.0 0.0 0.00 0.00 0.00 75 1026.8
20210803233919 71 0.0 1.0 0.00 0.00 0.00 74 1026.8
20210803233819 71 0.0 0.0 0.00 0.00 0.00 74 1026.9
20210803233719 71 0.0 0.0 0.00 0.00 0.00 75 1026.9
20210803233619 71 0.0 0.0 0.00 0.00 0.00 75 1026.9
20210803233519 71 0.0 0.0 0.00 0.00 0.00 74 1026.9
20210803233419 71 0.0 0.0 0.00 0.00 0.00 73 1026.9
20210803233319 71 0.0 0.0 0.00 0.00 0.00 74 1026.8
20210803233219 71 0.0 0.0 0.00 0.00 0.00 73 1026.8
20210803233119 71 0.0 0.0 0.00 0.00 0.00 72 1026.8
20210803233019 71 0.0 0.0 0.00 0.00 0.00 73 1026.8
20210803232921 72 0.0 0.0 0.00 0.00 0.00 72 1026.8
20210803232820 72 0.0 1.0 0.00 0.00 0.00 70 1026.8
20210803232719 72 180 1.0 1.0 0.00 0.00 0.00 70 1026.8
20210803232619 72 180 1.0 1.0 0.00 0.00 0.00 70 1026.7
20210803232519 72 180 1.0 1.0 0.00 0.00 0.00 69 1026.7
20210803232424 72 180 1.0 1.0 0.00 0.00 0.00 68 1026.7
20210803232319 72 0.0 1.0 0.00 0.00 0.00 68 1026.7
20210803232219 72 0.0 0.0 0.00 0.00 0.00 68 1026.7
20210803232119 72 0.0 0.0 0.00 0.00 0.00 68 1026.7
20210803232019 72 0.0 0.0 0.00 0.00 0.00 70 1026.7
20210803231918 73 0.0 0.0 0.00 0.00 0.00 70 1026.8
20210803231820 73 0.0 0.0 0.00 0.00 0.00 68 1026.8
20210803231721 73 0.0 0.0 0.00 0.00 0.00 68 1026.8
20210803231619 73 0.0 0.0 0.00 0.00 0.00 65 1026.8
20210803231519 73 0.0 0.0 0.00 0.00 0.00 65 1026.8
20210803231419 73 0.0 0.0 0.00 0.00 0.00 64 1026.8
20210803231319 73 0.0 0.0 0.00 0.00 0.00 65 1026.7
20210803231219 73 0.0 0.0 0.00 0.00 0.00 66 1026.8
20210803231119 73 0.0 0.0 0.00 0.00 0.00 65 1026.8
20210803231019 73 0.0 0.0 0.00 0.00 0.00 63 1026.8
20210803230919 73 0.0 0.0 0.00 0.00 0.00 63 1026.7
20210803230818 73 0.0 0.0 0.00 0.00 0.00 64 1026.7
20210803230721 73 0.0 0.0 0.00 0.00 0.00 64 1026.7
20210803230620 73 0.0 0.0 0.00 0.00 0.00 64 1026.8
20210803230521 74 0.0 0.0 0.00 0.00 0.00 66 1026.8
20210803230421 74 0.0 0.0 0.00 0.00 0.00 64 1026.8
20210803230319 74 0.0 0.0 0.00 0.00 0.00 66 1026.8
20210803230219 74 0.0 0.0 0.00 0.00 0.00 64 1026.7
20210803230120 74 0.0 0.0 0.00 0.00 0.00 64 1026.8
20210803230019 74 0.0 0.0 0.00 0.00 0.00 64 1026.8
20210803225919 74 0.0 0.0 0.00 0.00 0.00 65 1026.8
20210803225821 74 0.0 0.0 0.00 0.00 0.00 65 1026.7
20210803225720 74 0.0 0.0 0.00 0.00 0.00 64 1026.7
20210803225621 74 0.0 0.0 0.00 0.00 0.00 65 1026.7
20210803225520 74 0.0 0.0 0.00 0.00 0.00 66 1026.7
20210803225421 74 180 1.0 2.0 0.00 0.00 0.00 64 1026.7
20210803225321 74 0.0 0.0 0.00 0.00 0.00 64 1026.7
20210803225219 74 0.0 0.0 0.00 0.00 0.00 64 1026.7
20210803225119 74 0.0 1.0 0.00 0.00 0.00 65 1026.7
20210803225019 74 0.0 0.0 0.00 0.00 0.00 65 1026.7
20210803224919 74 0.0 0.0 0.00 0.00 0.00 64 1026.7
20210803224818 74 0.0 0.0 0.00 0.00 0.00 66 1026.7
20210803224720 74 0.0 1.0 0.00 0.00 0.00 64 1026.7
20210803224621 74 180 1.0 1.0 0.00 0.00 0.00 66 1026.6
20210803224520 74 0.0 1.0 0.00 0.00 0.00 65 1026.7
20210803224420 74 0.0 1.0 0.00 0.00 0.00 65 1026.7
20210803224320 74 0.0 1.0 0.00 0.00 0.00 66 1026.8
20210803224221 74 0.0 1.0 0.00 0.00 0.00 63 1026.8
20210803224119 74 0.0 2.0 0.00 0.00 0.00 65 1026.8
20210803224019 74 0.0 0.0 0.00 0.00 0.00 65 1026.8
20210803223918 74 135 1.0 1.0 0.00 0.00 0.00 66 1026.8
20210803223819 74 0.0 1.0 0.00 0.00 0.00 66 1026.8
20210803223719 74 0.0 1.0 0.00 0.00 0.00 67 1026.8
20210803223620 74 0.0 0.0 0.00 0.00 0.00 67 1026.8
20210803223520 74 0.0 0.0 0.00 0.00 0.00 66 1026.8
20210803223420 74 0.0 0.0 0.00 0.00 0.00 65 1026.8
20210803223320 74 0.0 1.0 0.00 0.00 0.00 64 1026.8
20210803223221 74 135 1.0 1.0 0.00 0.00 0.00 63 1026.9
20210803223120 74 113 1.0 2.0 0.00 0.00 0.00 64 1026.9
20210803223019 74 113 1.0 2.0 0.00 0.00 0.00 64 1026.9
20210803222919 74 113 1.0 2.0 0.00 0.00 0.00 64 1026.9
20210803222820 74 113 2.0 3.0 0.00 0.00 0.00 64 1026.9
20210803222719 74 113 1.0 2.0 0.00 0.00 0.00 64 1026.9
20210803222619 74 113 1.0 2.0 0.00 0.00 0.00 63 1026.9
20210803222521 74 113 1.0 3.0 0.00 0.00 0.00 64 1026.9
20210803222420 74 135 1.0 2.0 0.00 0.00 0.00 65 1026.9
20210803222321 74 0.0 1.0 0.00 0.00 0.00 65 1026.9
20210803222220 74 0.0 0.0 0.00 0.00 0.00 66 1026.9
20210803222120 74 0.0 1.0 0.00 0.00 0.00 67 1026.9
20210803222020 74 0.0 1.0 0.00 0.00 0.00 66 1026.9
20210803221920 74 68 1.0 2.0 0.00 0.00 0.00 64 1026.9
20210803221819 74 0.0 1.0 0.00 0.00 0.00 64 1026.9
20210803221719 74 0.0 1.0 0.00 0.00 0.00 66 1026.9
20210803221618 74 0.0 1.0 0.00 0.00 0.00 65 1026.8
20210803221519 74 0.0 0.0 0.00 0.00 0.00 63 1026.9
20210803221420 74 0.0 0.0 0.00 0.00 0.00 65 1026.9
20210803221320 74 68 1.0 1.0 0.00 0.00 0.00 65 1026.9
20210803221220 74 0.0 1.0 0.00 0.00 0.00 65 1026.9
20210803221121 74 0.0 1.0 0.00 0.00 0.00 64 1026.9
20210803221020 74 0.0 1.0 0.00 0.00 0.00 63 1026.9
20210803220920 74 68 1.0 2.0 0.00 0.00 0.00 64 1026.8
20210803220820 74 68 1.0 1.0 0.00 0.00 0.00 64 1026.8
20210803220721 74 0.0 1.0 0.00 0.00 0.00 66 1026.8
20210803220619 74 0.0 1.0 0.00 0.00 0.00 65 1026.8
20210803220519 74 0.0 0.0 0.00 0.00 0.00 65 1026.8
20210803220419 74 0.0 1.0 0.00 0.00 0.00 64 1026.8
20210803220319 74 0.0 1.0 0.00 0.00 0.00 64 1026.8
20210803220222 74 68 1.0 1.0 0.00 0.00 0.00 66 1026.8
20210803220121 74 248 1.0 2.0 0.00 0.00 0.00 65 1026.8
20210803220022 74 0.0 1.0 0.00 0.00 0.00 64 1026.8
20210803215920 74 0.0 1.0 0.00 0.00 0.00 64 1026.9
20210803215820 74 0.0 1.0 0.00 0.00 0.00 62 1026.9
20210803215720 74 0.0 1.0 0.00 0.00 0.00 63 1026.8
20210803215621 74 0.0 1.0 0.00 0.00 0.00 64 1026.8
20210803215520 74 0.0 1.0 0.00 0.00 0.00 64 1026.8
20210803215418 74 248 1.0 1.0 0.00 0.00 0.00 65 1026.8
20210803215319 74 0.0 1.0 0.00 0.00 0.00 66 1026.8
20210803215221 74 0.0 1.0 0.00 0.00 0.00 64 1026.8
20210803215119 74 248 1.0 2.0 0.00 0.00 0.00 63 1026.8
20210803215020 74 252 0.0 0.0 0.00 0.00 0.00 64 1026.8
20210803214920 74 0.0 1.0 0.00 0.00 0.00 65 1026.9
20210803214820 74 252 0.0 0.0 0.00 0.00 0.00 64 1026.8
20210803214720 74 0.0 1.0 0.00 0.00 0.00 64 1026.9
20210803214620 74 180 1.0 2.0 0.00 0.00 0.00 65 1026.8
20210803214521 74 180 1.0 2.0 0.00 0.00 0.00 64 1026.9
20210803214420 74 135 1.0 2.0 0.00 0.00 0.00 63 1026.9
20210803214319 74 158 1.0 2.0 0.00 0.00 0.00 66 1026.9
20210803214219 74 0.0 1.0 0.00 0.00 0.00 66 1026.9
20210803214120 74 0.0 1.0 0.00 0.00 0.00 64 1026.8
20210803214020 74 158 1.0 1.0 0.00 0.00 0.00 65 1026.9
20210803213920 74 0.0 1.0 0.00 0.00 0.00 64 1026.8
20210803213821 74 158 1.0 2.0 0.00 0.00 0.00 63 1026.9
20210803213720 74 0.0 1.0 0.00 0.00 0.00 64 1026.9
20210803213620 74 0.0 0.0 0.00 0.00 0.00 64 1026.9
20210803213520 74 158 1.0 2.0 0.00 0.00 0.00 62 1026.9
20210803213420 74 158 1.0 2.0 0.00 0.00 0.00 63 1026.9
20210803213319 74 0.0 1.0 0.00 0.00 0.00 63 1026.9
20210803213219 74 0.0 0.0 0.00 0.00 0.00 62 1026.9
20210803213119 74 0.0 0.0 0.00 0.00 0.00 64 1026.8
20210803213021 74 0.0 0.0 0.00 0.00 0.00 61 1026.8
20210803212921 74 0.0 0.0 0.00 0.00 0.00 62 1026.8
20210803212820 74 0.0 1.0 0.00 0.00 0.00 62 1026.8
20210803212721 74 158 1.0 2.0 0.00 0.00 0.00 61 1026.8
20210803212620 74 0.0 1.0 0.00 0.00 0.00 60 1026.8
20210803212520 74 0.0 1.0 0.00 0.00 0.00 62 1026.8
20210803212420 74 270 1.0 2.0 0.00 0.00 0.00 61 1026.8
20210803212320 74 270 1.0 2.0 0.00 0.00 0.00 64 1026.8
20210803212220 74 248 1.0 2.0 0.00 0.00 0.00 62 1026.9
20210803212119 74 0.0 0.0 0.00 0.00 0.00 63 1026.8
20210803212019 74 0.0 0.0 0.00 0.00 0.00 61 1026.8
20210803211921 74 0.0 1.0 0.00 0.00 0.00 63 1026.8
20210803211820 74 0.0 1.0 0.00 0.00 0.00 62 1026.8
20210803211721 74 0.0 0.0 0.00 0.00 0.00 63 1026.8
20210803211621 74 0.0 1.0 0.00 0.00 0.00 63 1026.8
20210803211520 74 0.0 1.0 0.00 0.00 0.00 64 1026.8
20210803211420 74 248 1.0 1.0 0.00 0.00 0.00 63 1026.8
20210803211320 74 248 1.0 2.0 0.00 0.00 0.00 62 1026.9
20210803211220 74 270 1.0 2.0 0.00 0.00 0.00 64 1026.8
20210803211120 74 293 1.0 2.0 0.00 0.00 0.00 65 1026.9
20210803211020 74 0.0 1.0 0.00 0.00 0.00 65 1026.9
20210803210920 74 0.0 1.0 0.00 0.00 0.00 63 1026.9
20210803210821 74 203 1.0 2.0 0.00 0.00 0.00 65 1026.9
20210803210720 74 203 1.0 2.0 0.00 0.00 0.00 64 1026.8
20210803210620 74 0.0 1.0 0.00 0.00 0.00 65 1026.9
20210803210520 74 0.0 0.0 0.00 0.00 0.00 64 1026.8
20210803210420 74 0.0 0.0 0.00 0.00 0.00 63 1026.8
20210803210320 74 203 1.0 2.0 0.00 0.00 0.00 63 1026.9
20210803210220 74 203 2.0 3.0 0.00 0.00 0.00 62 1026.8
20210803210120 74 203 1.0 3.0 0.00 0.00 0.00 63 1026.9
20210803210020 74 203 1.0 2.0 0.00 0.00 0.00 62 1026.9
20210803205920 74 203 2.0 3.0 0.00 0.00 0.00 63 1026.9
20210803205820 74 203 2.0 3.0 0.00 0.00 0.00 62 1026.8
20210803205720 74 225 2.0 3.0 0.00 0.00 0.00 65 1026.8
20210803205621 74 225 1.0 2.0 0.00 0.00 0.00 64 1026.8
20210803205521 74 225 1.0 3.0 0.00 0.00 0.00 63 1026.8
20210803205421 74 225 1.0 2.0 0.00 0.00 0.00 63 1026.8
20210803205320 74 225 2.0 2.0 0.00 0.00 0.00 64 1026.8
20210803205220 74 0.0 1.0 0.00 0.00 0.00 65 1026.8
20210803205120 74 225 1.0 1.0 0.00 0.00 0.00 65 1026.8
20210803205020 74 0.0 1.0 0.00 0.00 0.00 64 1026.8
20210803204921 74 225 2.0 2.0 0.00 0.00 0.00 63 1026.7
20210803204820 74 248 1.0 2.0 0.00 0.00 0.00 65 1026.7
20210803204720 74 248 1.0 2.0 0.00 0.00 0.00 65 1026.7
20210803204620 74 248 1.0 1.0 0.00 0.00 0.00 63 1026.7
20210803204521 74 248 1.0 2.0 0.00 0.00 0.00 62 1026.7
20210803204420 75 248 1.0 2.0 0.00 0.00 0.00 62 1026.6
20210803204320 75 0.0 1.0 0.00 0.00 0.00 61 1026.7
20210803204220 75 248 1.0 3.0 0.00 0.00 0.00 61 1026.6
20210803204120 75 180 1.0 2.0 0.00 0.00 0.00 61 1026.7
20210803204020 75 0.0 1.0 0.00 0.00 0.00 64 1026.7
20210803203921 75 0.0 1.0 0.00 0.00 0.00 62 1026.6
20210803203820 75 0.0 1.0 0.00 0.00 0.00 60 1026.6
20210803203721 75 180 1.0 2.0 0.00 0.00 0.00 61 1026.7
20210803203620 75 180 1.0 2.0 0.00 0.00 0.00 62 1026.6
20210803203520 75 0.0 1.0 0.00 0.00 0.00 62 1026.6
20210803203422 75 113 1.0 2.0 0.00 0.00 0.00 62 1026.6
20210803203320 75 113 1.0 2.0 0.00 0.00 0.00 62 1026.6
20210803203220 75 113 2.0 2.0 0.00 0.00 0.00 62 1026.6
20210803203121 75 158 1.0 2.0 0.00 0.00 0.00 62 1026.6
20210803203021 75 0.0 1.0 0.00 0.00 0.00 62 1026.6
20210803202920 75 158 1.0 2.0 0.00 0.00 0.00 63 1026.6
20210803202820 75 0.0 1.0 0.00 0.00 0.00 62 1026.6
20210803202720 75 0.0 1.0 0.00 0.00 0.00 63 1026.7
20210803202620 75 0.0 1.0 0.00 0.00 0.00 62 1026.6
20210803202520 75 0.0 1.0 0.00 0.00 0.00 61 1026.6
20210803202420 75 203 1.0 3.0 0.00 0.00 0.00 62 1026.6
20210803202321 75 203 2.0 3.0 0.00 0.00 0.00 61 1026.6
20210803202220 75 203 1.0 2.0 0.00 0.00 0.00 61 1026.6
20210803202120 75 203 1.0 2.0 0.00 0.00 0.00 61 1026.6
20210803202020 75 203 1.0 2.0 0.00 0.00 0.00 60 1026.6
20210803201920 75 203 1.0 2.0 0.00 0.00 0.00 60 1026.6
20210803201820 76 203 1.0 2.0 0.00 0.00 0.00 61 1026.6
20210803201720 76 293 1.0 2.0 0.00 0.00 0.00 61 1026.6
20210803201620 76 293 2.0 3.0 0.00 0.00 0.00 60 1026.6
20210803201520 76 203 2.0 3.0 0.00 0.00 0.00 59 1026.6
20210803201420 76 135 2.0 4.0 0.00 0.00 0.00 60 1026.6
20210803201320 76 135 2.0 3.0 0.00 0.00 0.00 57 1026.7
20210803201220 76 135 1.0 2.0 0.00 0.00 0.00 58 1026.7
20210803201120 76 113 1.0 2.0 0.00 0.00 0.00 58 1026.7
20210803201019 76 113 1.0 2.0 0.00 0.00 0.00 59 1026.7
20210803200920 76 113 1.0 2.0 0.00 0.00 0.00 60 1026.7
20210803200820 76 113 1.0 2.0 0.00 0.00 0.00 61 1026.7
20210803200720 76 113 1.0 2.0 0.00 0.00 0.00 58 1026.7
20210803200620 76 0.0 1.0 0.00 0.00 0.00 55 1026.7
20210803200520 76 113 1.0 1.0 0.00 0.00 0.00 54 1026.7
20210803200420 76 113 1.0 2.0 0.00 0.00 0.00 53 1026.7
20210803200320 76 113 1.0 3.0 0.00 0.00 0.00 53 1026.7
20210803200220 76 113 1.0 2.0 0.00 0.00 0.00 56 1026.7
20210803200120 76 113 1.0 1.0 0.00 0.00 0.00 54 1026.7
20210803200020 76 113 1.0 2.0 0.00 0.00 0.00 52 1026.7
20210803195922 76 113 2.0 2.0 0.00 0.00 0.00 51 1026.7
20210803195820 77 113 2.0 2.0 0.00 0.00 0.00 52 1026.7
20210803195720 77 113 1.0 2.0 0.00 0.00 0.00 52 1026.8
20210803195620 77 113 2.0 3.0 0.00 0.00 0.00 55 1026.8
20210803195520 77 135 1.0 2.0 0.00 0.00 0.00 53 1026.8
20210803195420 77 135 1.0 2.0 0.00 0.00 0.00 52 1026.8
20210803195320 77 135 1.0 3.0 0.00 0.00 0.00 51 1026.8
20210803195220 77 180 2.0 3.0 0.00 0.00 0.00 51 1026.8
20210803195120 77 225 1.0 2.0 0.00 0.00 0.00 57 1026.8
20210803195020 77 180 2.0 3.0 0.00 0.00 0.00 57 1026.9
20210803194920 77 180 1.0 2.0 0.00 0.00 0.00 54 1026.9
20210803194820 77 270 1.0 2.0 0.00 0.00 0.00 55 1026.9
20210803194720 77 270 1.0 2.0 0.00 0.00 0.00 59 1026.9
20210803194620 76 0.0 1.0 0.00 0.00 0.00 57 1026.9
20210803194520 76 270 1.0 2.0 0.00 0.00 0.00 56 1027.0
20210803194420 76 270 1.0 2.0 0.00 0.00 0.00 56 1027.0
20210803194320 76 270 1.0 2.0 0.00 0.00 0.00 60 1026.9
20210803194220 76 270 1.0 3.0 0.00 0.00 0.00 57 1026.9
20210803194120 76 270 2.0 4.0 0.00 0.00 0.00 57 1027.0
20210803194020 76 45 1.0 2.0 0.00 0.00 0.00 59 1026.9
20210803193920 76 45 1.0 2.0 0.00 0.00 0.00 58 1026.9
20210803193820 76 45 1.0 1.0 0.00 0.00 0.00 58 1026.9
20210803193720 76 45 1.0 2.0 0.00 0.00 0.00 59 1026.9
20210803193620 76 45 2.0 3.0 0.00 0.00 0.00 58 1026.9
20210803193520 76 113 2.0 3.0 0.00 0.00 0.00 59 1026.9
20210803193420 76 113 2.0 3.0 0.00 0.00 0.00 57 1026.9
20210803193320 76 113 1.0 2.0 0.00 0.00 0.00 59 1026.9
20210803193220 76 113 1.0 2.0 0.00 0.00 0.00 59 1026.9
20210803193120 76 135 1.0 3.0 0.00 0.00 0.00 58 1026.9
20210803193020 76 180 1.0 1.0 0.00 0.00 0.00 61 1026.9
20210803192921 76 180 2.0 5.0 0.00 0.00 0.00 60 1026.9
20210803192820 76 135 3.0 6.0 0.00 0.00 0.00 62 1026.9
20210803192720 76 90 2.0 3.0 0.00 0.00 0.00 62 1026.9
20210803192620 76 90 3.0 6.0 0.00 0.00 0.00 62 1026.9
20210803192520 76 90 3.0 4.0 0.00 0.00 0.00 63 1027.0
20210803192420 76 135 1.0 2.0 0.00 0.00 0.00 60 1027.0
20210803192320 76 135 1.0 2.0 0.00 0.00 0.00 63 1027.0
20210803192220 76 293 1.0 3.0 0.00 0.00 0.00 61 1027.0
20210803192120 76 293 3.0 6.0 0.00 0.00 0.00 60 1027.0
20210803192020 76 158 1.0 3.0 0.00 0.00 0.00 63 1027.1
20210803191920 76 158 1.0 2.0 0.00 0.00 0.00 63 1027.1
20210803191820 76 158 2.0 3.0 0.00 0.00 0.00 62 1027.1
20210803191720 76 158 2.0 3.0 0.00 0.00 0.00 64 1027.1
20210803191620 76 248 2.0 3.0 0.00 0.00 0.00 60 1027.2
20210803191520 76 248 1.0 2.0 0.00 0.00 0.00 60 1027.2
20210803191420 76 248 1.0 2.0 0.00 0.00 0.00 61 1027.2
20210803191320 76 113 1.0 2.0 0.00 0.00 0.00 60 1027.2
20210803191220 76 113 1.0 2.0 0.00 0.00 0.00 60 1027.3
20210803191120 76 135 1.0 3.0 0.00 0.00 0.00 64 1027.3
20210803191020 76 135 1.0 2.0 0.00 0.00 0.00 64 1027.3
20210803190920 76 90 4.0 4.0 0.00 0.00 0.00 62 1027.3
20210803190820 76 68 3.0 4.0 0.00 0.00 0.00 61 1027.3
20210803190720 75 68 2.0 4.0 0.00 0.00 0.00 62 1027.3
20210803190620 75 225 1.0 2.0 0.00 0.00 0.00 65 1027.3
20210803190520 75 225 2.0 3.0 0.00 0.00 0.00 64 1027.4
20210803190420 75 135 2.0 4.0 0.00 0.00 0.00 62 1027.4
20210803190320 75 180 1.0 2.0 0.00 0.00 0.00 66 1027.5
20210803190220 75 180 2.0 4.0 0.00 0.00 0.00 63 1027.5
20210803190120 75 180 2.0 4.0 0.00 0.00 0.00 64 1027.5
20210803190020 75 90 2.0 4.0 0.00 0.00 0.00 64 1027.5
20210803185920 75 90 2.0 6.0 0.00 0.00 0.00 63 1027.5
20210803185821 75 135 1.0 2.0 0.00 0.00 0.00 67 1027.5
20210803185720 75 135 2.0 3.0 0.00 0.00 0.00 66 1027.5
20210803185621 75 90 3.0 5.0 0.00 0.00 0.00 62 1027.5
20210803185520 75 248 2.0 3.0 0.00 0.00 0.00 63 1027.6
20210803185420 75 203 1.0 2.0 0.00 0.00 0.00 64 1027.5
20210803185320 74 0.0 1.0 0.00 0.00 0.00 64 1027.6
20210803185220 74 203 1.0 2.0 0.00 0.00 0.00 66 1027.6
20210803185120 74 203 1.0 3.0 0.00 0.00 0.00 63 1027.6
20210803185020 74 225 1.0 2.0 0.00 0.00 0.00 64 1027.5
20210803184920 74 270 1.0 1.0 0.00 0.00 0.00 66 1027.5
20210803184820 74 0.0 0.0 0.00 0.00 0.00 66 1027.6
20210803184720 74 0.0 2.0 0.00 0.00 0.00 67 1027.5
20210803184620 74 270 1.0 2.0 0.00 0.00 0.00 64 1027.6
20210803184533 74 270 1.0 2.0 0.00 0.00 0.00 65 1027.6
20210803184421 74 270 2.0 3.0 0.00 0.00 0.00 64 1027.6
20210803184321 74 270 2.0 3.0 0.00 0.00 0.00 66 1027.6
20210803184220 74 248 1.0 2.0 0.00 0.00 0.00 66 1027.6
20210803184120 74 225 2.0 3.0 0.00 0.00 0.00 65 1027.6
20210803184020 74 0.0 1.0 0.00 0.00 0.00 63 1027.6
20210803183920 74 225 1.0 1.0 0.00 0.00 0.00 62 1027.6
20210803183820 74 225 1.0 3.0 0.00 0.00 0.00 64 1027.6
20210803183720 74 315 2.0 3.0 0.00 0.00 0.00 64 1027.6
20210803183620 74 270 3.0 3.0 0.00 0.00 0.00 63 1027.6
20210803183520 74 270 3.0 6.0 0.00 0.00 0.00 67 1027.7
20210803183420 74 293 2.0 3.0 0.00 0.00 0.00 67 1027.6
20210803183320 74 293 3.0 4.0 0.00 0.00 0.00 65 1027.7
20210803183221 74 293 1.0 3.0 0.00 0.00 0.00 66 1027.7
20210803183120 74 0.0 1.0 0.00 0.00 0.00 67 1027.7
20210803183020 74 293 1.0 2.0 0.00 0.00 0.00 66 1027.7
20210803182920 74 293 2.0 2.0 0.00 0.00 0.00 68 1027.7
20210803182820 74 293 1.0 2.0 0.00 0.00 0.00 67 1027.7
20210803182720 74 293 2.0 3.0 0.00 0.00 0.00 67 1027.8
20210803182620 74 158 1.0 2.0 0.00 0.00 0.00 66 1027.7
20210803182520 74 158 1.0 2.0 0.00 0.00 0.00 66 1027.8
20210803182420 74 135 1.0 2.0 0.00 0.00 0.00 66 1027.8
20210803182321 74 270 1.0 2.0 0.00 0.00 0.00 67 1027.8
20210803182221 74 0.0 1.0 0.00 0.00 0.00 66 1027.8
20210803182121 74 270 1.0 2.0 0.00 0.00 0.00 67 1027.8
20210803182020 74 270 2.0 3.0 0.00 0.00 0.00 67 1027.8
20210803181921 74 293 1.0 1.0 0.00 0.00 0.00 66 1027.8
20210803181820 74 293 1.0 2.0 0.00 0.00 0.00 64 1027.8
20210803181720 74 293 2.0 4.0 0.00 0.00 0.00 62 1027.9
20210803181620 74 315 2.0 3.0 0.00 0.00 0.00 61 1027.8
20210803181520 74 315 2.0 4.0 0.00 0.00 0.00 61 1027.8
20210803181420 74 315 4.0 5.0 0.00 0.00 0.00 59 1027.8
20210803181320 74 293 2.0 3.0 0.00 0.00 0.00 59 1027.8
20210803181220 74 293 1.0 2.0 0.00 0.00 0.00 60 1027.8
20210803181121 74 293 1.0 2.0 0.00 0.00 0.00 59 1027.8
20210803181020 73 0.0 1.0 0.00 0.00 0.00 57 1027.8
20210803180920 73 293 1.0 2.0 0.00 0.00 0.00 57 1027.8
20210803180820 73 293 1.0 2.0 0.00 0.00 0.00 57 1027.8
20210803180720 73 270 2.0 3.0 0.00 0.00 0.00 57 1027.8
20210803180620 73 270 2.0 3.0 0.00 0.00 0.00 58 1027.8
20210803180520 73 338 2.0 4.0 0.00 0.00 0.00 56 1027.8
20210803180420 74 338 2.0 3.0 0.00 0.00 0.00 58 1027.8
20210803180320 74 338 1.0 2.0 0.00 0.00 0.00 60 1027.9
20210803180220 74 338 1.0 2.0 0.00 0.00 0.00 60 1027.9
20210803180120 74 0.0 1.0 0.00 0.00 0.00 60 1027.9
20210803180020 74 338 2.0 3.0 0.00 0.00 0.00 58 1027.9
20210803175920 74 338 2.0 3.0 0.00 0.00 0.00 60 1027.9
20210803175820 74 338 1.0 2.0 0.00 0.00 0.00 61 1027.9
20210803175720 74 338 1.0 3.0 0.00 0.00 0.00 60 1027.9
20210803175620 74 338 1.0 2.0 0.00 0.00 0.00 61 1027.9
20210803175520 74 338 2.0 3.0 0.00 0.00 0.00 60 1027.9
20210803175420 74 338 3.0 4.0 0.00 0.00 0.00 59 1027.9
20210803175320 74 338 2.0 3.0 0.00 0.00 0.00 60 1027.9
20210803175220 74 338 2.0 3.0 0.00 0.00 0.00 59 1028.0
20210803175120 74 338 1.0 2.0 0.00 0.00 0.00 58 1028.0
20210803175020 74 338 2.0 3.0 0.00 0.00 0.00 57 1027.9
20210803174920 74 338 2.0 2.0 0.00 0.00 0.00 58 1027.9
20210803174827 74 298 3.0 0.0 0.00 0.00 0.00 58 1028.0
20210803174720 74 298 3.0 0.0 0.00 0.00 0.00 58 1028.0
20210803174620 74 293 1.0 3.0 0.00 0.00 0.00 58 1028.1
20210803174520 74 293 1.0 2.0 0.00 0.00 0.00 58 1028.0
20210803174420 74 338 2.0 3.0 0.00 0.00 0.00 57 1028.0
20210803174320 74 315 2.0 3.0 0.00 0.00 0.00 60 1028.0
20210803174220 74 293 3.0 4.0 0.00 0.00 0.00 59 1028.1
20210803174120 74 270 2.0 4.0 0.00 0.00 0.00 61 1028.1
20210803174020 74 338 1.0 2.0 0.00 0.00 0.00 59 1028.1
20210803173920 74 0.0 1.0 0.00 0.00 0.00 60 1028.0
20210803173820 74 338 1.0 3.0 0.00 0.00 0.00 57 1028.0
20210803173720 74 338 2.0 3.0 0.00 0.00 0.00 59 1028.0
20210803173620 74 315 3.0 4.0 0.00 0.00 0.00 59 1028.0
20210803173520 74 225 2.0 3.0 0.00 0.00 0.00 58 1028.0
20210803173420 74 270 2.0 3.0 0.00 0.00 0.00 59 1028.0
20210803173320 74 0.0 1.0 0.00 0.00 0.00 59 1028.0
20210803173220 74 0.0 1.0 0.00 0.00 0.00 60 1028.0
20210803173120 74 135 1.0 2.0 0.00 0.00 0.00 60 1028.0
20210803173020 74 135 1.0 2.0 0.00 0.00 0.00 63 1028.0
20210803172920 74 0.0 1.0 0.00 0.00 0.00 63 1028.0
20210803172820 73 135 1.0 2.0 0.00 0.00 0.00 64 1027.9
20210803172720 73 0.0 1.0 0.00 0.00 0.00 62 1028.0
20210803172620 73 135 1.0 2.0 0.00 0.00 0.00 59 1027.9
20210803172520 73 0.0 1.0 0.00 0.00 0.00 58 1027.9
20210803172420 73 135 1.0 2.0 0.00 0.00 0.00 57 1028.0
20210803172320 73 135 2.0 3.0 0.00 0.00 0.00 57 1027.9
20210803172220 73 180 2.0 3.0 0.00 0.00 0.00 57 1028.0
20210803172120 73 180 2.0 3.0 0.00 0.00 0.00 57 1028.0
20210803172020 73 158 2.0 3.0 0.00 0.00 0.00 58 1028.0
20210803171920 73 203 2.0 3.0 0.00 0.00 0.00 58 1028.0
20210803171819 73 180 2.0 3.0 0.00 0.00 0.00 60 1028.0
20210803171721 73 315 1.0 2.0 0.00 0.00 0.00 59 1028.0
20210803171619 73 315 1.0 2.0 0.00 0.00 0.00 58 1028.1
20210803171520 73 315 2.0 3.0 0.00 0.00 0.00 58 1028.1
20210803171420 73 315 2.0 3.0 0.00 0.00 0.00 57 1028.1
20210803171320 73 315 3.0 4.0 0.00 0.00 0.00 58 1028.1
20210803171220 74 315 2.0 4.0 0.00 0.00 0.00 60 1028.1
20210803171120 74 315 1.0 2.0 0.00 0.00 0.00 58 1028.1
20210803171020 74 315 2.0 3.0 0.00 0.00 0.00 58 1028.1
20210803170920 74 270 2.0 3.0 0.00 0.00 0.00 59 1028.0
20210803170820 74 315 3.0 5.0 0.00 0.00 0.00 57 1028.1
20210803170720 74 315 2.0 3.0 0.00 0.00 0.00 57 1028.1
20210803170620 74 315 3.0 3.0 0.00 0.00 0.00 57 1028.2
20210803170520 74 315 3.0 5.0 0.00 0.00 0.00 61 1028.2
20210803170419 74 293 3.0 5.0 0.00 0.00 0.00 56 1028.2
20210803170319 74 293 2.0 4.0 0.00 0.00 0.00 56 1028.1
20210803170220 74 315 3.0 5.0 0.00 0.00 0.00 56 1028.1
20210803170120 74 338 3.0 5.0 0.00 0.00 0.00 56 1028.1
20210803170020 74 293 4.0 5.0 0.00 0.00 0.00 58 1028.2
20210803165920 74 293 3.0 4.0 0.00 0.00 0.00 60 1028.2
20210803165820 74 338 2.0 4.0 0.00 0.00 0.00 58 1028.1
20210803165720 74 338 2.0 4.0 0.00 0.00 0.00 60 1028.1
20210803165620 74 293 2.0 3.0 0.00 0.00 0.00 58 1028.1
20210803165520 74 270 2.0 3.0 0.00 0.00 0.00 58 1028.1
20210803165420 74 248 2.0 3.0 0.00 0.00 0.00 57 1028.2
20210803165321 74 248 2.0 3.0 0.00 0.00 0.00 54 1028.1
20210803165219 74 248 2.0 3.0 0.00 0.00 0.00 61 1028.2
20210803165120 74 270 1.0 2.0 0.00 0.00 0.00 61 1028.2
20210803165020 74 270 2.0 3.0 0.00 0.00 0.00 61 1028.2
20210803164920 73 270 2.0 3.0 0.00 0.00 0.00 64 1028.2
20210803164820 73 0.0 1.0 0.00 0.00 0.00 60 1028.2
20210803164720 73 0.0 1.0 0.00 0.00 0.00 58 1028.2
20210803164620 73 270 1.0 2.0 0.00 0.00 0.00 59 1028.2
20210803164520 73 270 2.0 3.0 0.00 0.00 0.00 61 1028.2
20210803164420 73 0 1.0 1.0 0.00 0.00 0.00 61 1028.2
20210803164319 73 0 1.0 3.0 0.00 0.00 0.00 62 1028.2
20210803164219 73 248 1.0 3.0 0.00 0.00 0.00 64 1028.2
20210803164119 73 248 3.0 5.0 0.00 0.00 0.00 62 1028.2
20210803164020 73 248 2.0 4.0 0.00 0.00 0.00 61 1028.2
20210803163920 73 270 2.0 4.0 0.00 0.00 0.00 63 1028.2
20210803163820 73 293 1.0 2.0 0.00 0.00 0.00 66 1028.2
20210803163720 73 270 1.0 3.0 0.00 0.00 0.00 63 1028.2
20210803163620 73 0.0 1.0 0.00 0.00 0.00 63 1028.1
20210803163520 73 270 1.0 2.0 0.00 0.00 0.00 65 1028.2
20210803163420 73 270 1.0 2.0 0.00 0.00 0.00 63 1028.1
20210803163320 73 0.0 1.0 0.00 0.00 0.00 61 1028.2
20210803163219 73 270 1.0 2.0 0.00 0.00 0.00 61 1028.2
20210803163120 73 270 2.0 3.0 0.00 0.00 0.00 63 1028.2
20210803163020 73 270 2.0 3.0 0.00 0.00 0.00 66 1028.3
20210803162919 73 0.0 1.0 0.00 0.00 0.00 64 1028.2
20210803162819 73 0.0 1.0 0.00 0.00 0.00 63 1028.2
20210803162720 73 270 1.0 2.0 0.00 0.00 0.00 63 1028.2
20210803162620 73 270 2.0 2.0 0.00 0.00 0.00 64 1028.2
20210803162520 73 270 2.0 3.0 0.00 0.00 0.00 64 1028.3
20210803162420 73 293 1.0 2.0 0.00 0.00 0.00 65 1028.3
20210803162320 73 293 2.0 3.0 0.00 0.00 0.00 68 1028.3
20210803162220 73 23 4.0 6.0 0.00 0.00 0.00 68 1028.3
20210803162120 73 293 2.0 3.0 0.00 0.00 0.00 67 1028.3
20210803162019 73 270 1.0 2.0 0.00 0.00 0.00 67 1028.3
20210803161920 73 0.0 2.0 0.00 0.00 0.00 64 1028.3